Peotone Weather
Station Historical Data
Daily Summary for March 31, 2012 Units:  English    Metric   Both
« Previous Day
Next Day »
Daily Weekly Monthly Yearly Custom
  High: Low: Average:
Temperature: 53.7 °F 38.3 °F 44.6 °F
Dew Point: 44.9 °F 35.1 °F 39.3 °F
Humidity: 90% 68% 82%
Wind Speed: 11.0mph 0.0mph 2.9mph
Wind Gust: 14.0mph - -
Wind- - East
Pressure: 29.99 in 29.82 in -
Precipitation: 0.00 in    
Historical Graphs
 
 
Tabular Data for March 31, 2012
Time Temperature Dew Point Pressure Wind Wind Speed Wind Gust Humidity Rainfall Rate (Hourly) solar Conditions
00:02 41.6 °F 37.7 °F 29.91 in Calm   11.0 mph 86% 0.00 in 0.00 W/m2
00:03 41.6 °F 37.7 °F 29.91 in NNE 4.0 mph 11.0 mph 86% 0.00 in 0.00 W/m2
00:04 41.6 °F 37.7 °F 29.91 in NE 3.0 mph 12.0 mph 86% 0.00 in 0.00 W/m2
00:07 41.6 °F 37.7 °F 29.91 in NNE 2.0 mph 12.0 mph 86% 0.00 in 0.00 W/m2
00:08 41.5 °F 37.6 °F 29.91 in NNE 1.0 mph 12.0 mph 86% 0.00 in 0.00 W/m2
00:09 41.5 °F 37.6 °F 29.91 in NNE 5.0 mph 12.0 mph 86% 0.00 in 0.00 W/m2
00:10 41.5 °F 37.6 °F 29.91 in NNE 3.0 mph 12.0 mph 86% 0.00 in 0.00 W/m2
00:12 41.5 °F 37.6 °F 29.91 in NE 6.0 mph 7.0 mph 86% 0.00 in 0.00 W/m2
00:13 41.6 °F 37.7 °F 29.91 in NNE 4.0 mph 9.0 mph 86% 0.00 in 0.00 W/m2
00:15 41.6 °F 37.7 °F 29.91 in North 2.0 mph 9.0 mph 86% 0.00 in 0.00 W/m2
00:17 41.6 °F 37.7 °F 29.91 in NNE 6.0 mph 11.0 mph 86% 0.00 in 0.00 W/m2
00:19 41.6 °F 37.4 °F 29.91 in NE 5.0 mph 11.0 mph 85% 0.00 in 0.00 W/m2
00:20 41.5 °F 37.3 °F 29.91 in Calm   11.0 mph 85% 0.00 in 0.00 W/m2
00:23 41.6 °F 37.4 °F 29.92 in NNE 2.0 mph 9.0 mph 85% 0.00 in 0.00 W/m2
00:25 41.6 °F 37.7 °F 29.92 in NNE 3.0 mph 9.0 mph 86% 0.00 in 0.00 W/m2
00:28 41.6 °F 37.7 °F 29.93 in NNE 3.0 mph 10.0 mph 86% 0.00 in 0.00 W/m2
00:30 41.6 °F 37.7 °F 29.93 in NNE 10.0 mph 10.0 mph 86% 0.00 in 0.00 W/m2
00:35 41.7 °F 37.8 °F 29.93 in North 3.0 mph 10.0 mph 86% 0.00 in 0.00 W/m2
00:36 41.7 °F 37.5 °F 29.93 in Calm   10.0 mph 85% 0.00 in 0.00 W/m2
00:40 41.7 °F 37.5 °F 29.93 in Calm   10.0 mph 85% 0.00 in 0.00 W/m2
00:41 41.7 °F 37.5 °F 29.94 in Calm   5.0 mph 85% 0.00 in 0.00 W/m2
00:45 41.7 °F 37.5 °F 29.94 in NE 3.0 mph 12.0 mph 85% 0.00 in 0.00 W/m2
00:46 41.7 °F 37.5 °F 29.94 in NNE 5.0 mph 12.0 mph 85% 0.00 in 0.00 W/m2
00:50 41.7 °F 37.5 °F 29.93 in NE 3.0 mph 9.0 mph 85% 0.00 in 0.00 W/m2
00:52 41.6 °F 37.4 °F 29.94 in North 9.0 mph 9.0 mph 85% 0.00 in 0.00 W/m2
00:55 41.6 °F 37.4 °F 29.94 in NE 2.0 mph 11.0 mph 85% 0.00 in 0.00 W/m2
00:57 41.6 °F 37.4 °F 29.94 in NNE 2.0 mph 11.0 mph 85% 0.00 in 0.00 W/m2
00:58 41.6 °F 37.4 °F 29.94 in NNE 3.0 mph 11.0 mph 85% 0.00 in 0.00 W/m2
01:00 41.5 °F 37.3 °F 29.94 in NE 5.0 mph 5.0 mph 85% 0.00 in 0.00 W/m2
01:02 41.5 °F 37.3 °F 29.94 in NNE 7.0 mph 7.0 mph 85% 0.00 in 0.00 W/m2
01:03 41.5 °F 37.3 °F 29.94 in NE 3.0 mph 7.0 mph 85% 0.00 in 0.00 W/m2
01:05 41.5 °F 37.3 °F 29.94 in NE 5.0 mph 9.0 mph 85% 0.00 in 0.00 W/m2
01:06 41.4 °F 37.2 °F 29.94 in NE 3.0 mph 9.0 mph 85% 0.00 in 0.00 W/m2
01:08 41.4 °F 37.2 °F 29.94 in NE 2.0 mph 9.0 mph 85% 0.00 in 0.00 W/m2
01:09 41.4 °F 37.2 °F 29.94 in NNE 5.0 mph 10.0 mph 85% 0.00 in 0.00 W/m2
01:11 41.3 °F 37.1 °F 29.94 in NNE 2.0 mph 8.0 mph 85% 0.00 in 0.00 W/m2
01:13 41.3 °F 37.1 °F 29.93 in NNE 9.0 mph 12.0 mph 85% 0.00 in 0.00 W/m2
01:14 41.3 °F 37.1 °F 29.93 in NNE 3.0 mph 12.0 mph 85% 0.00 in 0.00 W/m2
01:16 41.2 °F 37.0 °F 29.93 in ENE 10.0 mph 12.0 mph 85% 0.00 in 0.00 W/m2
01:18 41.2 °F 37.0 °F 29.93 in Calm   12.0 mph 85% 0.00 in 0.00 W/m2
01:19 41.2 °F 38.5 °F 29.93 in NNE 3.0 mph 12.0 mph 90% 0.00 in 0.00 W/m2
01:21 41.1 °F 36.9 °F 29.93 in NNE 5.0 mph 7.0 mph 85% 0.00 in 0.00 W/m2
01:24 41.0 °F 37.1 °F 29.93 in ENE 2.0 mph 9.0 mph 86% 0.00 in 0.00 W/m2
01:25 41.0 °F 37.1 °F 29.93 in NE 5.0 mph 11.0 mph 86% 0.00 in 0.00 W/m2
01:26 41.0 °F 37.1 °F 29.93 in Calm   11.0 mph 86% 0.00 in 0.00 W/m2
01:28 40.9 °F 37.0 °F 29.93 in NE 3.0 mph 14.0 mph 86% 0.00 in 0.00 W/m2
01:29 40.9 °F 37.0 °F 29.93 in NE 9.0 mph 14.0 mph 86% 0.00 in 0.00 W/m2
01:31 40.8 °F 36.9 °F 29.93 in Calm   9.0 mph 86% 0.00 in 0.00 W/m2
01:33 40.8 °F 36.9 °F 29.93 in Calm   12.0 mph 86% 0.00 in 0.00 W/m2
01:34 40.8 °F 36.9 °F 29.93 in NNE 10.0 mph 13.0 mph 86% 0.00 in 0.00 W/m2
01:37 40.8 °F 36.9 °F 29.93 in NE 7.0 mph 13.0 mph 86% 0.00 in 0.00 W/m2
01:39 40.8 °F 36.9 °F 29.93 in NE 6.0 mph 13.0 mph 86% 0.00 in 0.00 W/m2
01:42 40.8 °F 36.9 °F 29.93 in NE 6.0 mph 12.0 mph 86% 0.00 in 0.00 W/m2
01:44 40.8 °F 36.9 °F 29.94 in NE 4.0 mph 12.0 mph 86% 0.00 in 0.00 W/m2
01:47 40.8 °F 36.9 °F 29.93 in NE 4.0 mph 12.0 mph 86% 0.00 in 0.00 W/m2
01:48 40.8 °F 36.9 °F 29.93 in NE 2.0 mph 12.0 mph 86% 0.00 in 0.00 W/m2
01:49 40.8 °F 36.9 °F 29.93 in NNW 11.0 mph 12.0 mph 86% 0.00 in 0.00 W/m2
01:50 40.8 °F 36.9 °F 29.93 in North 3.0 mph 12.0 mph 86% 0.00 in 0.00 W/m2
01:52 40.9 °F 37.0 °F 29.94 in NNE 10.0 mph 11.0 mph 86% 0.00 in 0.00 W/m2
01:53 40.9 °F 37.0 °F 29.94 in NNE 6.0 mph 11.0 mph 86% 0.00 in 0.00 W/m2
01:55 40.9 °F 37.0 °F 29.94 in Calm   11.0 mph 86% 0.00 in 0.00 W/m2
01:58 40.9 °F 37.0 °F 29.94 in NNE 7.0 mph 11.0 mph 86% 0.00 in 0.00 W/m2
02:00 40.9 °F 37.0 °F 29.94 in NE 5.0 mph 11.0 mph 86% 0.00 in 0.00 W/m2
02:03 40.9 °F 37.0 °F 29.94 in NE 2.0 mph 6.0 mph 86% 0.00 in 0.00 W/m2
02:04 40.9 °F 37.0 °F 29.94 in NE 2.0 mph 6.0 mph 86% 0.00 in 0.00 W/m2
02:05 40.9 °F 37.0 °F 29.94 in NNE 3.0 mph 11.0 mph 86% 0.00 in 0.00 W/m2
02:09 40.9 °F 37.0 °F 29.94 in Calm   11.0 mph 86% 0.00 in 0.00 W/m2
02:10 40.9 °F 37.0 °F 29.94 in NNE 1.0 mph 11.0 mph 86% 0.00 in 0.00 W/m2
02:14 41.0 °F 37.1 °F 29.93 in NE 5.0 mph 10.0 mph 86% 0.00 in 0.00 W/m2
02:15 41.0 °F 37.1 °F 29.94 in ENE 6.0 mph 10.0 mph 86% 0.00 in 0.00 W/m2
02:16 40.9 °F 37.0 °F 29.94 in NE 5.0 mph 12.0 mph 86% 0.00 in 0.00 W/m2
02:19 41.0 °F 37.1 °F 29.93 in ENE 5.0 mph 12.0 mph 86% 0.00 in 0.00 W/m2
02:20 41.0 °F 37.1 °F 29.93 in Calm     86% 0.00 in 0.00 W/m2
02:22 41.0 °F 37.1 °F 29.93 in East 10.0 mph 10.0 mph 86% 0.00 in 0.00 W/m2
02:24 41.0 °F 37.1 °F 29.93 in Calm   11.0 mph 86% 0.00 in 0.00 W/m2
02:25 40.9 °F 37.0 °F 29.93 in NE 7.0 mph 11.0 mph 86% 0.00 in 0.00 W/m2
02:26 40.9 °F 37.0 °F 29.93 in NE 5.0 mph 11.0 mph 86% 0.00 in 0.00 W/m2
02:27 40.9 °F 37.0 °F 29.93 in Calm   11.0 mph 86% 0.00 in 0.00 W/m2
02:30 40.9 °F 37.0 °F 29.93 in NE 4.0 mph 5.0 mph 86% 0.00 in 0.00 W/m2
02:32 40.9 °F 37.0 °F 29.93 in NE 4.0 mph 10.0 mph 86% 0.00 in 0.00 W/m2
02:35 40.9 °F 37.0 °F 29.94 in NE 1.0 mph 10.0 mph 86% 0.00 in 0.00 W/m2
02:37 40.9 °F 37.0 °F 29.94 in Calm   10.0 mph 86% 0.00 in 0.00 W/m2
02:39 40.9 °F 37.0 °F 29.95 in NE 4.0 mph 10.0 mph 86% 0.00 in 0.00 W/m2
02:40 40.9 °F 37.0 °F 29.95 in Calm   3.0 mph 86% 0.00 in 0.00 W/m2
02:41 40.9 °F 37.0 °F 29.95 in NE 2.0 mph 5.0 mph 86% 0.00 in 0.00 W/m2
02:42 40.9 °F 37.0 °F 29.95 in NE 1.0 mph 5.0 mph 86% 0.00 in 0.00 W/m2
02:44 40.9 °F 37.0 °F 29.95 in NE 3.0 mph 5.0 mph 86% 0.00 in 0.00 W/m2
02:45 40.9 °F 37.0 °F 29.95 in Calm   7.0 mph 86% 0.00 in 0.00 W/m2
02:46 40.9 °F 37.0 °F 29.95 in Calm   7.0 mph 86% 0.00 in 0.00 W/m2
02:47 41.0 °F 37.1 °F 29.95 in NE 5.0 mph 9.0 mph 86% 0.00 in 0.00 W/m2
02:49 41.0 °F 37.1 °F 29.95 in Calm   9.0 mph 86% 0.00 in 0.00 W/m2
02:50 41.0 °F 37.1 °F 29.95 in NE 2.0 mph 5.0 mph 86% 0.00 in 0.00 W/m2
02:51 41.0 °F 37.1 °F 29.95 in NE 2.0 mph 5.0 mph 86% 0.00 in 0.00 W/m2
02:53 41.0 °F 37.1 °F 29.95 in Calm   5.0 mph 86% 0.00 in 0.00 W/m2
02:55 41.0 °F 37.1 °F 29.95 in NE 3.0 mph 5.0 mph 86% 0.00 in 0.00 W/m2
02:56 41.0 °F 37.1 °F 29.95 in NE 5.0 mph 5.0 mph 86% 0.00 in 0.00 W/m2
02:58 41.0 °F 37.1 °F 29.96 in North 5.0 mph 7.0 mph 86% 0.00 in 0.00 W/m2
03:00 41.0 °F 37.1 °F 29.95 in NNE 6.0 mph 7.0 mph 86% 0.00 in 0.00 W/m2
03:01 41.0 °F 37.1 °F 29.95 in NNE 3.0 mph 6.0 mph 86% 0.00 in 0.00 W/m2
03:02 41.0 °F 37.1 °F 29.95 in North 9.0 mph 9.0 mph 86% 0.00 in 0.00 W/m2
03:03 41.0 °F 37.1 °F 29.95 in North 6.0 mph 9.0 mph 86% 0.00 in 0.00 W/m2
03:05 41.0 °F 37.1 °F 29.95 in North 4.0 mph 9.0 mph 86% 0.00 in 0.00 W/m2
03:06 41.0 °F 37.1 °F 29.95 in North 5.0 mph 10.0 mph 86% 0.00 in 0.00 W/m2
03:07 41.0 °F 37.1 °F 29.95 in Calm   10.0 mph 86% 0.00 in 0.00 W/m2
03:08 41.1 °F 37.2 °F 29.95 in Calm   10.0 mph 86% 0.00 in 0.00 W/m2
03:10 41.0 °F 37.1 °F 29.95 in Calm   2.0 mph 86% 0.00 in 0.00 W/m2
03:11 41.1 °F 37.2 °F 29.95 in North 2.0 mph 4.0 mph 86% 0.00 in 0.00 W/m2
03:12 41.1 °F 37.2 °F 29.95 in North 3.0 mph 4.0 mph 86% 0.00 in 0.00 W/m2
03:14 41.1 °F 37.2 °F 29.95 in North 3.0 mph 4.0 mph 86% 0.00 in 0.00 W/m2
03:15 41.0 °F 37.1 °F 29.95 in NNE 4.0 mph 4.0 mph 86% 0.00 in 0.00 W/m2
03:16 41.0 °F 37.1 °F 29.95 in NNE 2.0 mph 4.0 mph 86% 0.00 in 0.00 W/m2
03:17 41.1 °F 37.2 °F 29.95 in NE 3.0 mph 6.0 mph 86% 0.00 in 0.00 W/m2
03:19 41.0 °F 37.1 °F 29.95 in ENE 3.0 mph 9.0 mph 86% 0.00 in 0.00 W/m2
03:21 41.1 °F 37.2 °F 29.95 in NE 6.0 mph 7.0 mph 86% 0.00 in 0.00 W/m2
03:22 41.0 °F 37.1 °F 29.95 in ENE 6.0 mph 7.0 mph 86% 0.00 in 0.00 W/m2
03:24 41.0 °F 37.1 °F 29.95 in Calm   7.0 mph 86% 0.00 in 0.00 W/m2
03:26 41.0 °F 37.1 °F 29.95 in NE 3.0 mph 7.0 mph 86% 0.00 in 0.00 W/m2
03:27 41.0 °F 37.1 °F 29.95 in Calm   7.0 mph 86% 0.00 in 0.00 W/m2
03:29 41.0 °F 37.1 °F 29.95 in NE 4.0 mph 9.0 mph 86% 0.00 in 0.00 W/m2
03:31 41.0 °F 37.1 °F 29.95 in Calm   4.0 mph 86% 0.00 in 0.00 W/m2
03:32 41.0 °F 37.1 °F 29.94 in NE 1.0 mph 4.0 mph 86% 0.00 in 0.00 W/m2
03:35 41.0 °F 37.1 °F 29.94 in NE 2.0 mph 6.0 mph 86% 0.00 in 0.00 W/m2
03:37 40.9 °F 37.0 °F 29.94 in NE 2.0 mph 6.0 mph 86% 0.00 in 0.00 W/m2
03:40 40.9 °F 37.0 °F 29.94 in NE 3.0 mph 9.0 mph 86% 0.00 in 0.00 W/m2
03:42 40.9 °F 37.0 °F 29.94 in ENE 2.0 mph 9.0 mph 86% 0.00 in 0.00 W/m2
03:43 40.9 °F 37.0 °F 29.94 in NE 2.0 mph 9.0 mph 86% 0.00 in 0.00 W/m2
03:46 40.8 °F 36.9 °F 29.95 in NE 1.0 mph 9.0 mph 86% 0.00 in 0.00 W/m2
03:47 40.8 °F 36.9 °F 29.95 in NE 4.0 mph 11.0 mph 86% 0.00 in 0.00 W/m2
03:49 40.8 °F 36.9 °F 29.95 in NNE 6.0 mph 11.0 mph 86% 0.00 in 0.00 W/m2
03:51 40.8 °F 36.9 °F 29.95 in NE 10.0 mph 12.0 mph 86% 0.00 in 0.00 W/m2
03:52 40.7 °F 36.8 °F 29.95 in NNE 2.0 mph 12.0 mph 86% 0.00 in 0.00 W/m2
03:53 40.7 °F 36.8 °F 29.94 in NE 5.0 mph 12.0 mph 86% 0.00 in 0.00 W/m2
03:54 40.7 °F 36.8 °F 29.95 in Calm   12.0 mph 86% 0.00 in 0.00 W/m2
03:56 40.7 °F 36.8 °F 29.94 in NNE 1.0 mph 12.0 mph 86% 0.00 in 0.00 W/m2
03:58 40.7 °F 36.8 °F 29.94 in NE 7.0 mph 12.0 mph 86% 0.00 in 0.00 W/m2
03:59 40.7 °F 36.8 °F 29.94 in NE 10.0 mph 12.0 mph 86% 0.00 in 0.00 W/m2
04:02 40.7 °F 36.8 °F 29.95 in NNE 1.0 mph 6.0 mph 86% 0.00 in 0.00 W/m2
04:03 40.7 °F 36.8 °F 29.95 in NNE 1.0 mph 6.0 mph 86% 0.00 in 0.00 W/m2
04:04 40.7 °F 36.8 °F 29.95 in NNE 2.0 mph 6.0 mph 86% 0.00 in 0.00 W/m2
04:07 40.6 °F 36.8 °F 29.95 in NE 6.0 mph 11.0 mph 86% 0.00 in 0.00 W/m2
04:08 40.6 °F 36.8 °F 29.95 in NE 5.0 mph 11.0 mph 86% 0.00 in 0.00 W/m2
04:09 40.6 °F 36.8 °F 29.95 in NE 1.0 mph 11.0 mph 86% 0.00 in 0.00 W/m2
04:12 40.6 °F 36.8 °F 29.95 in NE 4.0 mph 10.0 mph 86% 0.00 in 0.00 W/m2
04:13 40.6 °F 36.8 °F 29.95 in NNE 3.0 mph 10.0 mph 86% 0.00 in 0.00 W/m2
04:15 40.6 °F 36.8 °F 29.95 in NNE 3.0 mph 10.0 mph 86% 0.00 in 0.00 W/m2
04:18 40.5 °F 36.7 °F 29.95 in ENE 2.0 mph 10.0 mph 86% 0.00 in 0.00 W/m2
04:20 40.5 °F 36.7 °F 29.95 in Calm     86% 0.00 in 0.00 W/m2
04:23 40.5 °F 36.7 °F 29.95 in NE 1.0 mph 5.0 mph 86% 0.00 in 0.00 W/m2
04:25 40.5 °F 36.7 °F 29.94 in NE 6.0 mph 10.0 mph 86% 0.00 in 0.00 W/m2
04:28 40.4 °F 36.5 °F 29.94 in NE 4.0 mph 10.0 mph 86% 0.00 in 0.00 W/m2
04:29 40.4 °F 36.5 °F 29.94 in NE 4.0 mph 10.0 mph 86% 0.00 in 0.00 W/m2
04:30 40.4 °F 36.5 °F 29.94 in NE 7.0 mph 8.0 mph 86% 0.00 in 0.00 W/m2
04:31 40.4 °F 36.5 °F 29.94 in NE 5.0 mph 8.0 mph 86% 0.00 in 0.00 W/m2
04:33 40.4 °F 36.5 °F 29.94 in NNE 2.0 mph 9.0 mph 86% 0.00 in 0.00 W/m2
04:34 40.4 °F 36.5 °F 29.94 in NE 3.0 mph 9.0 mph 86% 0.00 in 0.00 W/m2
04:35 40.4 °F 36.5 °F 29.94 in NE 2.0 mph 9.0 mph 86% 0.00 in 0.00 W/m2
04:37 40.4 °F 36.5 °F 29.94 in Calm   9.0 mph 86% 0.00 in 0.00 W/m2
04:38 40.4 °F 36.5 °F 29.94 in NE 4.0 mph 9.0 mph 86% 0.00 in 0.00 W/m2
04:39 40.4 °F 36.5 °F 29.94 in NE 3.0 mph 9.0 mph 86% 0.00 in 0.00 W/m2
04:43 40.4 °F 36.5 °F 29.94 in Calm   2.0 mph 86% 0.00 in 0.00 W/m2
04:45 40.4 °F 36.5 °F 29.94 in NE 2.0 mph 4.0 mph 86% 0.00 in 0.00 W/m2
04:48 40.4 °F 36.5 °F 29.95 in ENE 3.0 mph 6.0 mph 86% 0.00 in 0.00 W/m2
04:49 40.4 °F 36.5 °F 29.95 in ENE 7.0 mph 7.0 mph 86% 0.00 in 0.00 W/m2
04:51 40.4 °F 36.5 °F 29.95 in ENE 1.0 mph 5.0 mph 86% 0.00 in 0.00 W/m2
04:53 40.4 °F 36.5 °F 29.96 in NE 6.0 mph 6.0 mph 86% 0.00 in 0.00 W/m2
04:54 40.4 °F 36.5 °F 29.96 in NE 3.0 mph 6.0 mph 86% 0.00 in 0.00 W/m2
04:56 40.4 °F 36.5 °F 29.96 in NE 4.0 mph 6.0 mph 86% 0.00 in 0.00 W/m2
04:58 40.3 °F 36.2 °F 29.96 in NE 2.0 mph 9.0 mph 85% 0.00 in 0.00 W/m2
04:59 40.2 °F 36.3 °F 29.96 in NE 2.0 mph 9.0 mph 86% 0.00 in 0.00 W/m2
05:01 40.2 °F 36.3 °F 29.96 in NE 1.0 mph 5.0 mph 86% 0.00 in 0.00 W/m2
05:03 40.2 °F 36.3 °F 29.96 in NE 2.0 mph 5.0 mph 86% 0.00 in 0.00 W/m2
05:04 40.2 °F 36.3 °F 29.96 in NE 6.0 mph 6.0 mph 86% 0.00 in 0.00 W/m2
05:06 40.1 °F 36.3 °F 29.96 in NE 3.0 mph 9.0 mph 86% 0.00 in 0.00 W/m2
05:07 40.1 °F 36.3 °F 29.95 in NE 3.0 mph 9.0 mph 86% 0.00 in 0.00 W/m2
05:08 40.1 °F 36.3 °F 29.96 in NE 5.0 mph 9.0 mph 86% 0.00 in 0.00 W/m2
05:09 40.1 °F 36.3 °F 29.96 in NE 6.0 mph 9.0 mph 86% 0.00 in 0.00 W/m2
05:12 40.1 °F 36.3 °F 29.96 in NE 3.0 mph 7.0 mph 86% 0.00 in 0.00 W/m2
05:13 40.1 °F 36.3 °F 29.96 in NE 5.0 mph 8.0 mph 86% 0.00 in 0.00 W/m2
05:14 40.0 °F 36.2 °F 29.95 in NE 5.0 mph 8.0 mph 86% 0.00 in 0.00 W/m2
05:17 40.0 °F 36.2 °F 29.95 in NE 4.0 mph 12.0 mph 86% 0.00 in 0.00 W/m2
05:19 40.0 °F 36.2 °F 29.95 in Calm   12.0 mph 86% 0.00 in 0.00 W/m2
05:22 40.0 °F 36.2 °F 29.95 in NE 6.0 mph 9.0 mph 86% 0.00 in 0.00 W/m2
05:24 39.9 °F 36.1 °F 29.95 in NE 7.0 mph 9.0 mph 86% 0.00 in 0.00 W/m2
05:27 39.8 °F 36.0 °F 29.95 in East 2.0 mph 10.0 mph 86% 0.00 in 0.00 W/m2
05:28 39.8 °F 36.0 °F 29.95 in East 3.0 mph 10.0 mph 86% 0.00 in 0.00 W/m2
05:29 39.8 °F 36.0 °F 29.95 in NE 3.0 mph 10.0 mph 86% 0.00 in 0.00 W/m2
05:30 39.8 °F 36.0 °F 29.95 in NE 4.0 mph 10.0 mph 86% 0.00 in 0.00 W/m2
05:33 39.7 °F 35.9 °F 29.96 in NE 4.0 mph 9.0 mph 86% 0.00 in 0.00 W/m2
05:35 39.7 °F 35.9 °F 29.96 in NE 4.0 mph 9.0 mph 86% 0.00 in 0.00 W/m2
05:38 39.7 °F 35.9 °F 29.96 in Calm   9.0 mph 86% 0.00 in 0.00 W/m2
05:40 39.7 °F 35.9 °F 29.96 in NE 6.0 mph 7.0 mph 86% 0.00 in 0.00 W/m2
05:44 39.7 °F 35.9 °F 29.96 in Calm   7.0 mph 86% 0.00 in 0.00 W/m2
05:45 39.7 °F 35.9 °F 29.96 in NE 3.0 mph 10.0 mph 86% 0.00 in 0.00 W/m2
05:49 39.6 °F 35.8 °F 29.95 in ENE 3.0 mph 10.0 mph 86% 0.00 in 0.00 W/m2
05:50 39.6 °F 35.8 °F 29.95 in ENE 2.0 mph 4.0 mph 86% 0.00 in 0.00 W/m2
05:51 39.6 °F 35.8 °F 29.96 in NE 6.0 mph 7.0 mph 86% 0.00 in 0.00 W/m2
05:54 39.6 °F 35.8 °F 29.96 in ENE 3.0 mph 8.0 mph 86% 0.00 in 0.00 W/m2
05:55 39.6 °F 35.8 °F 29.96 in Calm   8.0 mph 86% 0.00 in 0.00 W/m2
05:56 39.6 °F 36.1 °F 29.96 in ENE 2.0 mph 8.0 mph 87% 0.00 in 0.00 W/m2
05:57 39.5 °F 36.0 °F 29.95 in ENE 4.0 mph 8.0 mph 87% 0.00 in 0.00 W/m2
06:00 39.5 °F 36.0 °F 29.95 in NE 3.0 mph 11.0 mph 87% 0.00 in 0.00 W/m2
06:01 39.5 °F 36.0 °F 29.95 in Calm   4.0 mph 87% 0.00 in 0.00 W/m2
06:02 39.5 °F 36.0 °F 29.95 in NE 3.0 mph 5.0 mph 87% 0.00 in 0.00 W/m2
06:05 39.5 °F 36.0 °F 29.95 in NE 2.0 mph 5.0 mph 87% 0.00 in 0.00 W/m2
06:06 39.4 °F 35.9 °F 29.95 in NE 4.0 mph 7.0 mph 87% 0.00 in 0.00 W/m2
06:07 39.4 °F 35.9 °F 29.95 in NE 3.0 mph 7.0 mph 87% 0.00 in 0.00 W/m2
06:10 39.3 °F 35.8 °F 29.95 in NE 3.0 mph 3.0 mph 87% 0.00 in 0.00 W/m2
06:11 39.4 °F 35.9 °F 29.95 in Calm   4.0 mph 87% 0.00 in 0.00 W/m2
06:12 39.4 °F 35.9 °F 29.95 in NE 5.0 mph 5.0 mph 87% 0.00 in 0.00 W/m2
06:15 39.3 °F 35.8 °F 29.95 in Calm   6.0 mph 87% 0.00 in 0.00 W/m2
06:16 39.4 °F 35.9 °F 29.95 in NE 1.0 mph 6.0 mph 87% 0.00 in 0.00 W/m2
06:17 39.4 °F 35.9 °F 29.95 in NE 3.0 mph 6.0 mph 87% 0.00 in 0.00 W/m2
06:20 39.4 °F 35.9 °F 29.95 in NE 3.0 mph 4.0 mph 87% 0.00 in 0.00 W/m2
06:21 39.4 °F 35.9 °F 29.95 in NE 4.0 mph 4.0 mph 87% 0.00 in 0.00 W/m2
06:22 39.4 °F 35.9 °F 29.95 in Calm   4.0 mph 87% 0.00 in 0.00 W/m2
06:25 39.4 °F 35.9 °F 29.96 in Calm   4.0 mph 87% 0.00 in 0.00 W/m2
06:26 39.4 °F 35.9 °F 29.96 in NE 4.0 mph 9.0 mph 87% 0.00 in 0.00 W/m2
06:27 39.4 °F 35.9 °F 29.96 in NE 2.0 mph 9.0 mph 87% 0.00 in 0.00 W/m2
06:28 39.4 °F 35.9 °F 29.96 in Calm   9.0 mph 87% 0.00 in 0.00 W/m2
06:31 39.4 °F 35.9 °F 29.96 in ENE 2.0 mph 7.0 mph 87% 0.00 in 0.00 W/m2
06:32 39.3 °F 35.8 °F 29.96 in ENE 3.0 mph 7.0 mph 87% 0.00 in 0.00 W/m2
06:33 39.3 °F 35.8 °F 29.96 in ENE 1.0 mph 7.0 mph 87% 0.00 in 0.00 W/m2
06:36 39.2 °F 35.7 °F 29.95 in Calm   10.0 mph 87% 0.00 in 0.00 W/m2
06:37 39.2 °F 35.7 °F 29.95 in Calm   10.0 mph 87% 0.00 in 0.00 W/m2
06:38 39.2 °F 35.7 °F 29.95 in ENE 3.0 mph 10.0 mph 87% 0.00 in 0.00 W/m2
06:41 39.1 °F 35.6 °F 29.95 in East 3.0 mph 9.0 mph 87% 0.00 in 0.00 W/m2
06:43 39.1 °F 35.6 °F 29.95 in ENE 7.0 mph 9.0 mph 87% 0.00 in 0.00 W/m2
06:47 39.1 °F 35.8 °F 29.95 in Calm   11.0 mph 88% 0.00 in 0.00 W/m2
06:48 39.0 °F 35.8 °F 29.95 in East 11.0 mph 11.0 mph 88% 0.00 in 0.00 W/m2
06:49 39.0 °F 35.8 °F 29.95 in ENE 3.0 mph 13.0 mph 88% 0.00 in 0.00 W/m2
06:53 38.9 °F 35.4 °F 29.95 in ENE 9.0 mph 12.0 mph 87% 0.00 in 0.00 W/m2
06:55 38.9 °F 35.4 °F 29.95 in NE 11.0 mph 12.0 mph 87% 0.00 in 5.00 W/m2
06:58 38.8 °F 35.6 °F 29.96 in ENE 11.0 mph 12.0 mph 88% 0.00 in 7.00 W/m2
06:59 38.8 °F 35.6 °F 29.96 in ENE 6.0 mph 12.0 mph 88% 0.00 in 7.00 W/m2
07:00 38.7 °F 35.2 °F 29.96 in NE 4.0 mph 5.0 mph 87% 0.00 in 7.00 W/m2
07:03 38.7 °F 35.5 °F 29.95 in NE 10.0 mph 10.0 mph 88% 0.00 in 7.00 W/m2
07:04 38.6 °F 35.4 °F 29.95 in ENE 4.0 mph 10.0 mph 88% 0.00 in 9.00 W/m2
07:05 38.6 °F 35.4 °F 29.95 in ENE 3.0 mph 10.0 mph 88% 0.00 in 9.00 W/m2
07:08 38.6 °F 35.4 °F 29.95 in ENE 3.0 mph 10.0 mph 88% 0.00 in 11.00 W/m2
07:09 38.6 °F 35.4 °F 29.95 in Calm   10.0 mph 88% 0.00 in 11.00 W/m2
07:10 38.6 °F 35.4 °F 29.96 in ENE 1.0 mph 3.0 mph 88% 0.00 in 11.00 W/m2
07:13 38.6 °F 35.4 °F 29.96 in Calm   8.0 mph 88% 0.00 in 9.00 W/m2
07:14 38.6 °F 35.4 °F 29.96 in Calm   8.0 mph 88% 0.00 in 7.00 W/m2
07:15 38.6 °F 35.4 °F 29.96 in NE 3.0 mph 8.0 mph 88% 0.00 in 7.00 W/m2
07:18 38.5 °F 35.3 °F 29.96 in NE 2.0 mph 8.0 mph 88% 0.00 in 7.00 W/m2
07:19 38.5 °F 35.3 °F 29.96 in NE 1.0 mph 8.0 mph 88% 0.00 in 7.00 W/m2
07:20 38.5 °F 35.3 °F 29.97 in NE 2.0 mph 5.0 mph 88% 0.00 in 7.00 W/m2
07:24 38.5 °F 35.3 °F 29.97 in NE 4.0 mph 7.0 mph 88% 0.00 in 7.00 W/m2
07:26 38.5 °F 35.3 °F 29.97 in Calm   7.0 mph 88% 0.00 in 11.00 W/m2
07:27 38.5 °F 35.3 °F 29.97 in Calm   7.0 mph 88% 0.00 in 7.00 W/m2
07:29 38.6 °F 35.4 °F 29.97 in NE 3.0 mph 7.0 mph 88% 0.00 in 7.00 W/m2
07:31 38.6 °F 35.4 °F 29.97 in ENE 4.0 mph 7.0 mph 88% 0.00 in 9.00 W/m2
07:32 38.5 °F 35.3 °F 29.97 in ENE 3.0 mph 7.0 mph 88% 0.00 in 7.00 W/m2
07:34 38.5 °F 35.3 °F 29.97 in ENE 7.0 mph 7.0 mph 88% 0.00 in 9.00 W/m2
07:36 38.4 °F 35.2 °F 29.97 in ENE 2.0 mph 8.0 mph 88% 0.00 in 9.00 W/m2
07:38 38.3 °F 35.1 °F 29.97 in ENE 2.0 mph 8.0 mph 88% 0.00 in 23.00 W/m2
07:39 38.3 °F 35.1 °F 29.97 in ENE 2.0 mph 8.0 mph 88% 0.00 in 28.00 W/m2
07:40 38.3 °F 35.1 °F 29.97 in Calm     88% 0.00 in 30.00 W/m2
07:42 38.3 °F 35.1 °F 29.97 in ENE 3.0 mph 3.0 mph 88% 0.00 in 28.00 W/m2
07:43 38.4 °F 35.2 °F 29.97 in ENE 2.0 mph 4.0 mph 88% 0.00 in 30.00 W/m2
07:44 38.4 °F 35.2 °F 29.97 in ENE 2.0 mph 4.0 mph 88% 0.00 in 32.00 W/m2
07:45 38.4 °F 35.2 °F 29.97 in ENE 4.0 mph 4.0 mph 88% 0.00 in 33.00 W/m2
07:47 38.4 °F 35.2 °F 29.97 in ENE 2.0 mph 6.0 mph 88% 0.00 in 37.00 W/m2
07:49 38.4 °F 35.2 °F 29.97 in ENE 4.0 mph 6.0 mph 88% 0.00 in 35.00 W/m2
07:51 38.4 °F 35.2 °F 29.97 in ENE 4.0 mph 4.0 mph 88% 0.00 in 37.00 W/m2
07:52 38.4 °F 35.2 °F 29.98 in Calm   4.0 mph 88% 0.00 in 37.00 W/m2
07:54 38.4 °F 35.2 °F 29.98 in ENE 2.0 mph 7.0 mph 88% 0.00 in 35.00 W/m2
07:56 38.5 °F 35.3 °F 29.98 in Calm   7.0 mph 88% 0.00 in 37.00 W/m2
07:57 38.5 °F 35.3 °F 29.98 in NE 7.0 mph 7.0 mph 88% 0.00 in 39.00 W/m2
07:59 38.5 °F 35.3 °F 29.98 in NE 4.0 mph 7.0 mph 88% 0.00 in 40.00 W/m2
08:01 38.5 °F 35.3 °F 29.98 in Calm   2.0 mph 88% 0.00 in 39.00 W/m2
08:02 38.6 °F 35.4 °F 29.98 in Calm   2.0 mph 88% 0.00 in 40.00 W/m2
08:04 38.6 °F 35.4 °F 29.98 in Calm   2.0 mph 88% 0.00 in 42.00 W/m2
08:06 38.6 °F 35.4 °F 29.98 in NE 3.0 mph 4.0 mph 88% 0.00 in 44.00 W/m2
08:08 38.6 °F 35.4 °F 29.98 in Calm   4.0 mph 88% 0.00 in 46.00 W/m2
08:09 38.7 °F 35.5 °F 29.98 in Calm   4.0 mph 88% 0.00 in 44.00 W/m2
08:10 38.7 °F 35.5 °F 29.98 in NE 2.0 mph 4.0 mph 88% 0.00 in 44.00 W/m2
08:12 38.8 °F 35.6 °F 29.98 in NE 2.0 mph 7.0 mph 88% 0.00 in 46.00 W/m2
08:13 38.8 °F 35.6 °F 29.98 in Calm   7.0 mph 88% 0.00 in 46.00 W/m2
08:14 38.8 °F 35.6 °F 29.98 in NE 4.0 mph 9.0 mph 88% 0.00 in 47.00 W/m2
08:15 38.8 °F 35.6 °F 29.98 in NE 5.0 mph 9.0 mph 88% 0.00 in 47.00 W/m2
08:17 38.8 °F 35.6 °F 29.98 in Calm   10.0 mph 88% 0.00 in 51.00 W/m2
08:18 38.8 °F 35.6 °F 29.98 in NE 3.0 mph 10.0 mph 88% 0.00 in 53.00 W/m2
08:19 38.9 °F 35.7 °F 29.98 in NE 7.0 mph 10.0 mph 88% 0.00 in 56.00 W/m2
08:20 38.9 °F 35.7 °F 29.98 in NE 2.0 mph 4.0 mph 88% 0.00 in 58.00 W/m2
08:22 38.9 °F 35.7 °F 29.97 in Calm   6.0 mph 88% 0.00 in 62.00 W/m2
08:24 38.9 °F 35.7 °F 29.97 in NE 4.0 mph 6.0 mph 88% 0.00 in 62.00 W/m2
08:25 38.9 °F 35.7 °F 29.98 in ENE 6.0 mph 6.0 mph 88% 0.00 in 63.00 W/m2
08:27 38.9 °F 35.7 °F 29.98 in ENE 8.0 mph 10.0 mph 88% 0.00 in 67.00 W/m2
08:29 38.8 °F 35.6 °F 29.97 in Calm   10.0 mph 88% 0.00 in 65.00 W/m2
08:30 38.8 °F 35.6 °F 29.97 in ENE 6.0 mph 6.0 mph 88% 0.00 in 67.00 W/m2
08:33 38.8 °F 35.6 °F 29.97 in NE 6.0 mph 10.0 mph 88% 0.00 in 67.00 W/m2
08:34 38.9 °F 35.7 °F 29.97 in NE 1.0 mph 10.0 mph 88% 0.00 in 69.00 W/m2
08:35 38.9 °F 35.7 °F 29.97 in NE 4.0 mph 10.0 mph 88% 0.00 in 72.00 W/m2
08:37 38.9 °F 35.7 °F 29.97 in NE 4.0 mph 10.0 mph 88% 0.00 in 70.00 W/m2
08:38 38.9 °F 35.7 °F 29.97 in NE 1.0 mph 10.0 mph 88% 0.00 in 70.00 W/m2
08:40 38.9 °F 35.7 °F 29.97 in NE 3.0 mph 10.0 mph 88% 0.00 in 74.00 W/m2
08:43 39.0 °F 35.8 °F 29.98 in NE 3.0 mph 9.0 mph 88% 0.00 in 77.00 W/m2
08:44 39.0 °F 35.8 °F 29.98 in NE 2.0 mph 9.0 mph 88% 0.00 in 79.00 W/m2
08:45 39.0 °F 35.8 °F 29.98 in ENE 5.0 mph 9.0 mph 88% 0.00 in 81.00 W/m2
08:46 39.0 °F 35.8 °F 29.98 in NE 3.0 mph 9.0 mph 88% 0.00 in 81.00 W/m2
08:48 39.0 °F 35.8 °F 29.98 in ENE 1.0 mph 10.0 mph 88% 0.00 in 77.00 W/m2
08:50 39.0 °F 35.8 °F 29.98 in ENE 5.0 mph 10.0 mph 88% 0.00 in 76.00 W/m2
08:51 39.0 °F 35.8 °F 29.98 in ENE 4.0 mph 6.0 mph 88% 0.00 in 72.00 W/m2
08:54 39.1 °F 35.8 °F 29.97 in Calm   9.0 mph 88% 0.00 in 67.00 W/m2
08:55 39.1 °F 35.8 °F 29.97 in ENE 5.0 mph 9.0 mph 88% 0.00 in 69.00 W/m2
08:56 39.2 °F 36.0 °F 29.97 in ENE 4.0 mph 10.0 mph 88% 0.00 in 70.00 W/m2
08:59 39.3 °F 36.0 °F 29.97 in ENE 7.0 mph 10.0 mph 88% 0.00 in 74.00 W/m2
09:00 39.3 °F 36.0 °F 29.97 in ENE 6.0 mph 6.0 mph 88% 0.00 in 76.00 W/m2
09:01 39.3 °F 36.0 °F 29.97 in Calm   6.0 mph 88% 0.00 in 77.00 W/m2
09:02 39.3 °F 36.0 °F 29.97 in ENE 2.0 mph 6.0 mph 88% 0.00 in 81.00 W/m2
09:04 39.4 °F 36.2 °F 29.97 in ENE 3.0 mph 9.0 mph 88% 0.00 in 81.00 W/m2
09:06 39.5 °F 36.2 °F 29.97 in NE 5.0 mph 9.0 mph 88% 0.00 in 88.00 W/m2
09:08 39.5 °F 36.2 °F 29.97 in East 3.0 mph 9.0 mph 88% 0.00 in 88.00 W/m2
09:09 39.5 °F 36.2 °F 29.97 in NE 10.0 mph 10.0 mph 88% 0.00 in 91.00 W/m2
09:11 39.5 °F 36.2 °F 29.97 in NE 2.0 mph 7.0 mph 88% 0.00 in 98.00 W/m2
09:13 39.5 °F 36.2 °F 29.97 in ENE 6.0 mph 10.0 mph 88% 0.00 in 97.00 W/m2
09:15 39.5 °F 36.2 °F 29.97 in NE 5.0 mph 10.0 mph 88% 0.00 in 93.00 W/m2
09:16 39.5 °F 36.2 °F 29.97 in Calm   10.0 mph 88% 0.00 in 90.00 W/m2
09:17 39.6 °F 36.3 °F 29.97 in NE 1.0 mph 10.0 mph 88% 0.00 in 98.00 W/m2
09:18 39.6 °F 36.3 °F 29.97 in NE 1.0 mph 10.0 mph 88% 0.00 in 104.00 W/m2
09:20 39.7 °F 36.4 °F 29.97 in NE 3.0 mph 4.0 mph 88% 0.00 in 102.00 W/m2
09:21 39.7 °F 36.4 °F 29.97 in East 11.0 mph 12.0 mph 88% 0.00 in 100.00 W/m2
09:22 39.7 °F 36.4 °F 29.97 in NE 10.0 mph 12.0 mph 88% 0.00 in 100.00 W/m2
09:24 39.7 °F 36.4 °F 29.97 in NE 3.0 mph 12.0 mph 88% 0.00 in 109.00 W/m2
09:26 39.7 °F 36.4 °F 29.97 in NE 4.0 mph 12.0 mph 88% 0.00 in 105.00 W/m2
09:27 39.7 °F 36.4 °F 29.97 in ENE 5.0 mph 12.0 mph 88% 0.00 in 104.00 W/m2
09:29 39.7 °F 36.4 °F 29.97 in NE 4.0 mph 12.0 mph 88% 0.00 in 100.00 W/m2
09:31 39.8 °F 36.5 °F 29.97 in NE 2.0 mph 4.0 mph 88% 0.00 in 97.00 W/m2
09:32 39.9 °F 36.6 °F 29.97 in Calm   4.0 mph 88% 0.00 in 95.00 W/m2
09:33 39.9 °F 36.6 °F 29.97 in East 3.0 mph 10.0 mph 88% 0.00 in 93.00 W/m2
09:34 39.9 °F 36.6 °F 29.97 in ENE 5.0 mph 10.0 mph 88% 0.00 in 95.00 W/m2
09:37 40.0 °F 36.7 °F 29.97 in NE 3.0 mph 10.0 mph 88% 0.00 in 104.00 W/m2
09:38 40.0 °F 36.7 °F 29.97 in NE 3.0 mph 10.0 mph 88% 0.00 in 102.00 W/m2
09:39 40.1 °F 36.8 °F 29.97 in ENE 10.0 mph 10.0 mph 88% 0.00 in 98.00 W/m2
09:42 40.1 °F 36.8 °F 29.97 in NE 4.0 mph 7.0 mph 88% 0.00 in 97.00 W/m2
09:43 40.1 °F 36.8 °F 29.97 in NE 9.0 mph 9.0 mph 88% 0.00 in 100.00 W/m2
09:44 40.1 °F 36.8 °F 29.97 in ENE 4.0 mph 10.0 mph 88% 0.00 in 104.00 W/m2
09:47 40.2 °F 36.9 °F 29.97 in ENE 4.0 mph 10.0 mph 88% 0.00 in 109.00 W/m2
09:49 40.2 °F 36.9 °F 29.97 in ENE 6.0 mph 10.0 mph 88% 0.00 in 121.00 W/m2
09:50 40.2 °F 36.7 °F 29.97 in East 2.0 mph 10.0 mph 87% 0.00 in 123.00 W/m2
09:54 40.2 °F 36.7 °F 29.96 in ENE 3.0 mph 8.0 mph 87% 0.00 in 128.00 W/m2
09:55 40.2 °F 36.9 °F 29.96 in NE 4.0 mph 8.0 mph 88% 0.00 in 128.00 W/m2
09:59 40.3 °F 36.8 °F 29.97 in Calm   8.0 mph 87% 0.00 in 116.00 W/m2
10:00 40.3 °F 36.8 °F 29.97 in NE 2.0 mph 2.0 mph 87% 0.00 in 116.00 W/m2
10:01 40.3 °F 36.8 °F 29.97 in ENE 5.0 mph 5.0 mph 87% 0.00 in 118.00 W/m2
10:05 40.4 °F 36.8 °F 29.97 in NE 3.0 mph 7.0 mph 87% 0.00 in 111.00 W/m2
10:06 40.5 °F 36.9 °F 29.97 in ENE 4.0 mph 7.0 mph 87% 0.00 in 114.00 W/m2
10:10 40.6 °F 37.0 °F 29.97 in ENE 6.0 mph 6.0 mph 87% 0.00 in 127.00 W/m2
10:11 40.6 °F 37.0 °F 29.98 in Calm   7.0 mph 87% 0.00 in 132.00 W/m2
10:12 40.6 °F 37.0 °F 29.98 in East 4.0 mph 7.0 mph 87% 0.00 in 137.00 W/m2
10:15 40.8 °F 37.2 °F 29.98 in ENE 3.0 mph 7.0 mph 87% 0.00 in 128.00 W/m2
10:16 40.8 °F 37.2 °F 29.98 in Calm   7.0 mph 87% 0.00 in 127.00 W/m2
10:17 40.8 °F 37.2 °F 29.99 in ENE 2.0 mph 7.0 mph 87% 0.00 in 125.00 W/m2
10:20 40.8 °F 37.2 °F 29.98 in ENE 5.0 mph 5.0 mph 87% 0.00 in 121.00 W/m2
10:21 40.8 °F 37.2 °F 29.98 in ENE 2.0 mph 5.0 mph 87% 0.00 in 116.00 W/m2
10:23 40.9 °F 37.3 °F 29.98 in ENE 5.0 mph 6.0 mph 87% 0.00 in 111.00 W/m2
10:25 40.9 °F 37.3 °F 29.99 in Calm   6.0 mph 87% 0.00 in 121.00 W/m2
10:26 40.9 °F 37.3 °F 29.99 in Calm   6.0 mph 87% 0.00 in 123.00 W/m2
10:28 41.0 °F 37.4 °F 29.99 in ENE 2.0 mph 6.0 mph 87% 0.00 in 123.00 W/m2
10:30 41.1 °F 37.5 °F 29.98 in Calm     87% 0.00 in 123.00 W/m2
10:31 41.1 °F 37.5 °F 29.98 in Calm     87% 0.00 in 123.00 W/m2
10:34 41.1 °F 37.5 °F 29.99 in ENE 1.0 mph 4.0 mph 87% 0.00 in 121.00 W/m2
10:36 41.1 °F 37.5 °F 29.99 in Calm   4.0 mph 87% 0.00 in 121.00 W/m2
10:41 41.3 °F 37.7 °F 29.99 in Calm   3.0 mph 87% 0.00 in 113.00 W/m2
10:46 41.4 °F 37.5 °F 29.99 in Calm   4.0 mph 86% 0.00 in 116.00 W/m2
10:51 41.5 °F 37.6 °F 29.99 in Calm   2.0 mph 86% 0.00 in 142.00 W/m2
10:52 41.5 °F 37.6 °F 29.99 in Calm   2.0 mph 86% 0.00 in 149.00 W/m2
10:56 41.6 °F 37.7 °F 29.98 in ENE 4.0 mph 6.0 mph 86% 0.00 in 169.00 W/m2
10:57 41.6 °F 37.7 °F 29.98 in ENE 3.0 mph 6.0 mph 86% 0.00 in 172.00 W/m2
10:58 41.6 °F 37.7 °F 29.98 in Calm   6.0 mph 86% 0.00 in 178.00 W/m2
11:01 41.7 °F 37.8 °F 29.98 in ENE 1.0 mph 5.0 mph 86% 0.00 in 193.00 W/m2
11:02 41.7 °F 37.8 °F 29.98 in ENE 1.0 mph 5.0 mph 86% 0.00 in 202.00 W/m2
11:03 41.8 °F 37.9 °F 29.98 in ENE 3.0 mph 5.0 mph 86% 0.00 in 204.00 W/m2
11:04 41.8 °F 37.9 °F 29.98 in ENE 1.0 mph 5.0 mph 86% 0.00 in 193.00 W/m2
11:07 41.8 °F 37.6 °F 29.98 in ENE 2.0 mph 7.0 mph 85% 0.00 in 185.00 W/m2
11:08 41.8 °F 37.9 °F 29.98 in North 8.0 mph 8.0 mph 86% 0.00 in 193.00 W/m2
11:09 41.8 °F 37.9 °F 29.98 in NE 4.0 mph 8.0 mph 86% 0.00 in 197.00 W/m2
11:12 41.9 °F 38.0 °F 29.98 in ENE 3.0 mph 7.0 mph 86% 0.00 in 207.00 W/m2
11:13 41.9 °F 37.7 °F 29.98 in Calm   7.0 mph 85% 0.00 in 185.00 W/m2
11:14 42.0 °F 39.3 °F 29.98 in ENE 1.0 mph 7.0 mph 90% 0.00 in 163.00 W/m2
11:17 42.1 °F 38.2 °F 29.99 in NE 4.0 mph 7.0 mph 86% 0.00 in 158.00 W/m2
11:18 42.0 °F 37.8 °F 29.99 in ENE 1.0 mph 7.0 mph 85% 0.00 in 160.00 W/m2
11:19 42.0 °F 37.8 °F 29.99 in Calm   7.0 mph 85% 0.00 in 144.00 W/m2
11:22 41.8 °F 37.6 °F 29.99 in Calm   2.0 mph 85% 0.00 in 113.00 W/m2
11:23 41.8 °F 37.6 °F 29.99 in Calm   2.0 mph 85% 0.00 in 113.00 W/m2
11:25 41.8 °F 37.6 °F 29.99 in ENE 2.0 mph 4.0 mph 85% 0.00 in 111.00 W/m2
11:28 41.9 °F 37.7 °F 29.99 in ENE 5.0 mph 5.0 mph 85% 0.00 in 144.00 W/m2
11:30 42.0 °F 37.8 °F 29.99 in ENE 2.0 mph 2.0 mph 85% 0.00 in 158.00 W/m2
11:34 42.0 °F 37.8 °F 29.99 in Calm   4.0 mph 85% 0.00 in 183.00 W/m2
11:35 42.1 °F 37.9 °F 29.98 in Calm   4.0 mph 85% 0.00 in 193.00 W/m2
11:39 42.2 °F 38.0 °F 29.98 in NE 2.0 mph 7.0 mph 85% 0.00 in 144.00 W/m2
11:40 42.2 °F 38.0 °F 29.99 in Calm   3.0 mph 85% 0.00 in 127.00 W/m2
11:41 42.2 °F 38.0 °F 29.99 in NE 4.0 mph 4.0 mph 85% 0.00 in 127.00 W/m2
11:45 42.3 °F 38.1 °F 29.98 in ENE 3.0 mph 7.0 mph 85% 0.00 in 171.00 W/m2
11:46 42.2 °F 37.7 °F 29.98 in ENE 3.0 mph 7.0 mph 84% 0.00 in 185.00 W/m2
11:47 42.2 °F 38.0 °F 29.98 in Calm   7.0 mph 85% 0.00 in 199.00 W/m2
11:50 42.2 °F 38.0 °F 29.98 in ENE 2.0 mph 2.0 mph 85% 0.00 in 163.00 W/m2
11:51 42.2 °F 38.0 °F 29.98 in ENE 3.0 mph 4.0 mph 85% 0.00 in 141.00 W/m2
11:52 42.3 °F 38.1 °F 29.98 in ENE 3.0 mph 4.0 mph 85% 0.00 in 120.00 W/m2
11:55 42.4 °F 38.2 °F 29.97 in ENE 1.0 mph 4.0 mph 85% 0.00 in 165.00 W/m2
11:56 42.4 °F 38.2 °F 29.97 in ENE 5.0 mph 5.0 mph 85% 0.00 in 178.00 W/m2
11:57 42.4 °F 38.2 °F 29.97 in ENE 3.0 mph 5.0 mph 85% 0.00 in 179.00 W/m2
12:00 42.5 °F 38.3 °F 29.97 in ENE 3.0 mph 4.0 mph 85% 0.00 in 253.00 W/m2
12:01 42.5 °F 38.3 °F 29.97 in ENE 4.0 mph 5.0 mph 85% 0.00 in 265.00 W/m2
12:02 42.5 °F 38.3 °F 29.97 in ENE 2.0 mph 5.0 mph 85% 0.00 in 279.00 W/m2
12:05 42.7 °F 38.5 °F 29.97 in ENE 1.0 mph 5.0 mph 85% 0.00 in 265.00 W/m2
12:06 42.7 °F 38.2 °F 29.97 in ENE 4.0 mph 6.0 mph 84% 0.00 in 274.00 W/m2
12:07 42.7 °F 38.2 °F 29.97 in ENE 5.0 mph 8.0 mph 84% 0.00 in 281.00 W/m2
12:10 43.0 °F 38.8 °F 29.97 in NE 1.0 mph 7.0 mph 85% 0.00 in 295.00 W/m2
12:11 43.2 °F 39.0 °F 29.97 in NE 3.0 mph 7.0 mph 85% 0.00 in 244.00 W/m2
12:12 43.3 °F 38.8 °F 29.97 in NE 2.0 mph 7.0 mph 84% 0.00 in 200.00 W/m2
12:15 43.3 °F 38.8 °F 29.97 in NE 3.0 mph 7.0 mph 84% 0.00 in 204.00 W/m2
12:16 43.3 °F 38.8 °F 29.97 in NE 3.0 mph 7.0 mph 84% 0.00 in 236.00 W/m2
12:17 43.4 °F 38.9 °F 29.97 in Calm   7.0 mph 84% 0.00 in 213.00 W/m2
12:18 43.4 °F 38.9 °F 29.97 in Calm   7.0 mph 84% 0.00 in 213.00 W/m2
12:20 43.4 °F 38.9 °F 29.97 in Calm   3.0 mph 84% 0.00 in 241.00 W/m2
12:23 43.4 °F 38.9 °F 29.97 in SE 4.0 mph 9.0 mph 84% 0.00 in 241.00 W/m2
12:26 43.3 °F 38.5 °F 29.97 in ESE 4.0 mph 9.0 mph 83% 0.00 in 334.00 W/m2
12:28 43.5 °F 38.7 °F 29.97 in ESE 2.0 mph 9.0 mph 83% 0.00 in 350.00 W/m2
12:29 43.5 °F 38.7 °F 29.97 in ESE 2.0 mph 9.0 mph 83% 0.00 in 353.00 W/m2
12:31 43.8 °F 39.6 °F 29.97 in ESE 1.0 mph 5.0 mph 85% 0.00 in 359.00 W/m2
12:33 44.0 °F 38.9 °F 29.97 in ESE 3.0 mph 5.0 mph 82% 0.00 in 343.00 W/m2
12:34 44.0 °F 38.9 °F 29.97 in ESE 2.0 mph 5.0 mph 82% 0.00 in 327.00 W/m2
12:36 44.1 °F 39.3 °F 29.97 in Calm   5.0 mph 83% 0.00 in 327.00 W/m2
12:38 44.1 °F 39.0 °F 29.97 in ESE 6.0 mph 7.0 mph 82% 0.00 in 339.00 W/m2
12:40 44.2 °F 39.1 °F 29.97 in ESE 2.0 mph 7.0 mph 82% 0.00 in 348.00 W/m2
12:41 44.1 °F 39.0 °F 29.97 in ESE 2.0 mph 2.0 mph 82% 0.00 in 353.00 W/m2
12:43 44.3 °F 39.5 °F 29.97 in Calm   3.0 mph 83% 0.00 in 341.00 W/m2
12:45 44.5 °F 39.4 °F 29.97 in ESE 4.0 mph 5.0 mph 82% 0.00 in 318.00 W/m2
12:46 44.4 °F 39.3 °F 29.97 in East 2.0 mph 5.0 mph 82% 0.00 in 320.00 W/m2
12:50 44.1 °F 39.0 °F 29.97 in East 2.0 mph 3.0 mph 82% 0.00 in 320.00 W/m2
12:51 44.1 °F 39.0 °F 29.97 in East 2.0 mph 3.0 mph 82% 0.00 in 320.00 W/m2
12:52 44.2 °F 39.1 °F 29.97 in Calm   3.0 mph 82% 0.00 in 316.00 W/m2
12:56 44.3 °F 39.2 °F 29.97 in East 3.0 mph 6.0 mph 82% 0.00 in 364.00 W/m2
12:57 44.4 °F 39.3 °F 29.97 in East 2.0 mph 6.0 mph 82% 0.00 in 376.00 W/m2
13:01 44.9 °F 39.8 °F 29.97 in Calm   5.0 mph 82% 0.00 in 341.00 W/m2
13:03 44.7 °F 39.2 °F 29.97 in East 2.0 mph 5.0 mph 81% 0.00 in 336.00 W/m2
13:06 45.0 °F 39.8 °F 29.96 in East 5.0 mph 6.0 mph 82% 0.00 in 359.00 W/m2
13:07 45.0 °F 39.5 °F 29.96 in East 3.0 mph 6.0 mph 81% 0.00 in 359.00 W/m2
13:08 45.0 °F 39.5 °F 29.96 in East 4.0 mph 6.0 mph 81% 0.00 in 350.00 W/m2
13:11 44.9 °F 39.4 °F 29.96 in East 4.0 mph 5.0 mph 81% 0.00 in 373.00 W/m2
13:12 44.9 °F 39.4 °F 29.96 in East 6.0 mph 6.0 mph 81% 0.00 in 383.00 W/m2
13:13 45.1 °F 39.6 °F 29.96 in ENE 2.0 mph 6.0 mph 81% 0.00 in 387.00 W/m2
13:16 45.0 °F 39.2 °F 29.96 in ENE 3.0 mph 6.0 mph 80% 0.00 in 401.00 W/m2
13:17 45.0 °F 39.5 °F 29.96 in ENE 3.0 mph 6.0 mph 81% 0.00 in 406.00 W/m2
13:18 45.1 °F 39.9 °F 29.96 in ENE 6.0 mph 6.0 mph 82% 0.00 in 397.00 W/m2
13:21 45.1 °F 39.6 °F 29.96 in ENE 4.0 mph 4.0 mph 81% 0.00 in 360.00 W/m2
13:22 45.1 °F 39.3 °F 29.96 in ENE 3.0 mph 4.0 mph 80% 0.00 in 360.00 W/m2
13:23 45.3 °F 40.1 °F 29.96 in ENE 1.0 mph 4.0 mph 82% 0.00 in 364.00 W/m2
13:27 45.3 °F 39.5 °F 29.96 in Calm   5.0 mph 80% 0.00 in 380.00 W/m2
13:28 45.4 °F 40.2 °F 29.96 in ENE 1.0 mph 5.0 mph 82% 0.00 in 387.00 W/m2
13:29 45.6 °F 40.1 °F 29.96 in ENE 7.0 mph 7.0 mph 81% 0.00 in 422.00 W/m2
13:32 46.0 °F 40.5 °F 29.95 in ESE 8.0 mph 10.0 mph 81% 0.00 in 448.00 W/m2
13:33 46.2 °F 40.4 °F 29.95 in SE 3.0 mph 10.0 mph 80% 0.00 in 469.00 W/m2
13:34 46.3 °F 40.5 °F 29.95 in ESE 4.0 mph 10.0 mph 80% 0.00 in 469.00 W/m2
13:37 46.1 °F 40.3 °F 29.95 in ESE 3.0 mph 10.0 mph 80% 0.00 in 445.00 W/m2
13:39 46.2 °F 40.1 °F 29.95 in ESE 1.0 mph 10.0 mph 79% 0.00 in 427.00 W/m2
13:43 46.1 °F 40.0 °F 29.96 in Calm   5.0 mph 79% 0.00 in 385.00 W/m2
13:44 46.2 °F 40.1 °F 29.96 in ESE 3.0 mph 5.0 mph 79% 0.00 in 399.00 W/m2
13:46 46.3 °F 40.5 °F 29.95 in ESE 2.0 mph 5.0 mph 80% 0.00 in 457.00 W/m2
13:48 46.9 °F 41.4 °F 29.95 in ESE 2.0 mph 5.0 mph 81% 0.00 in 468.00 W/m2
13:49 46.9 °F 41.4 °F 29.95 in Calm   5.0 mph 81% 0.00 in 468.00 W/m2
13:50 46.9 °F 40.7 °F 29.95 in East 3.0 mph 4.0 mph 79% 0.00 in 466.00 W/m2
13:51 46.7 °F 40.2 °F 29.95 in East 3.0 mph 5.0 mph 78% 0.00 in 439.00 W/m2
13:54 46.5 °F 40.3 °F 29.95 in East 1.0 mph 5.0 mph 79% 0.00 in 510.00 W/m2
13:55 46.5 °F 40.3 °F 29.95 in East 3.0 mph 5.0 mph 79% 0.00 in 563.00 W/m2
13:56 46.7 °F 40.9 °F 29.95 in East 3.0 mph 5.0 mph 80% 0.00 in 613.00 W/m2
13:59 47.2 °F 41.0 °F 29.95 in East 1.0 mph 5.0 mph 79% 0.00 in 547.00 W/m2
14:00 47.3 °F 41.1 °F 29.94 in East 6.0 mph 6.0 mph 79% 0.00 in 684.00 W/m2
14:02 47.4 °F 41.2 °F 29.95 in ESE 3.0 mph 9.0 mph 79% 0.00 in 684.00 W/m2
14:03 47.4 °F 40.9 °F 29.95 in ESE 5.0 mph 9.0 mph 78% 0.00 in 464.00 W/m2
14:04 47.6 °F 41.1 °F 29.95 in ESE 3.0 mph 9.0 mph 78% 0.00 in 445.00 W/m2
14:07 47.4 °F 40.9 °F 29.95 in East 2.0 mph 9.0 mph 78% 0.00 in 452.00 W/m2
14:08 47.3 °F 40.8 °F 29.95 in East 2.0 mph 9.0 mph 78% 0.00 in 452.00 W/m2
14:09 47.2 °F 40.7 °F 29.95 in East 2.0 mph 9.0 mph 78% 0.00 in 452.00 W/m2
14:12 47.9 °F 41.7 °F 29.94 in ESE 6.0 mph 7.0 mph 79% 0.00 in 663.00 W/m2
14:13 48.1 °F 41.9 °F 29.94 in ESE 4.0 mph 10.0 mph 79% 0.00 in 663.00 W/m2
14:14 48.7 °F 43.1 °F 29.94 in ESE 3.0 mph 10.0 mph 81% 0.00 in 466.00 W/m2
14:18 49.1 °F 41.5 °F 29.94 in ESE 3.0 mph 10.0 mph 75% 0.00 in 371.00 W/m2
14:20 48.4 °F 41.2 °F 29.94 in ESE 3.0 mph 5.0 mph 76% 0.00 in 364.00 W/m2
14:21 48.2 °F 41.3 °F 29.94 in ESE 1.0 mph 5.0 mph 77% 0.00 in 350.00 W/m2
14:23 47.7 °F 40.8 °F 29.94 in ESE 3.0 mph 5.0 mph 77% 0.00 in 350.00 W/m2
14:25 47.5 °F 40.7 °F 29.94 in ESE 4.0 mph 5.0 mph 77% 0.00 in 640.00 W/m2
14:27 47.6 °F 41.4 °F 29.93 in SE 3.0 mph 6.0 mph 79% 0.00 in 422.00 W/m2
14:28 47.6 °F 40.8 °F 29.93 in SE 4.0 mph 6.0 mph 77% 0.00 in 376.00 W/m2
14:29 47.6 °F 40.8 °F 29.93 in SE 2.0 mph 6.0 mph 77% 0.00 in 338.00 W/m2
14:32 47.5 °F 40.7 °F 29.93 in SE 3.0 mph 5.0 mph 77% 0.00 in 374.00 W/m2
14:33 47.4 °F 40.6 °F 29.93 in Calm   5.0 mph 77% 0.00 in 357.00 W/m2
14:35 47.5 °F 41.0 °F 29.93 in SE 4.0 mph 5.0 mph 78% 0.00 in 492.00 W/m2
14:38 48.7 °F 43.1 °F 29.93 in SE 3.0 mph 7.0 mph 81% 0.00 in 962.00 W/m2
14:39 49.6 °F 42.7 °F 29.93 in SE 5.0 mph 7.0 mph 77% 0.00 in 893.00 W/m2
14:42 49.1 °F 41.5 °F 29.93 in ENE 3.0 mph 8.0 mph 75% 0.00 in 403.00 W/m2
14:43 49.1 °F 42.2 °F 29.93 in ESE 5.0 mph 8.0 mph 77% 0.00 in 403.00 W/m2
14:44 49.2 °F 42.3 °F 29.93 in ESE 3.0 mph 8.0 mph 77% 0.00 in 364.00 W/m2
14:48 50.5 °F 43.9 °F 29.93 in ESE 4.0 mph 9.0 mph 78% 0.00 in 896.00 W/m2
14:49 50.6 °F 43.0 °F 29.92 in ESE 3.0 mph 9.0 mph 75% 0.00 in 802.00 W/m2
14:50 50.6 °F 43.0 °F 29.92 in ESE 4.0 mph 9.0 mph 75% 0.00 in 802.00 W/m2
14:53 49.7 °F 42.1 °F 29.93 in ESE 3.0 mph 10.0 mph 75% 0.00 in 606.00 W/m2
14:54 49.6 °F 42.4 °F 29.93 in ESE 5.0 mph 10.0 mph 76% 0.00 in 606.00 W/m2
14:55 49.8 °F 42.9 °F 29.93 in ESE 3.0 mph 10.0 mph 77% 0.00 in 780.00 W/m2
14:56 49.9 °F 42.7 °F 29.93 in ESE 2.0 mph 10.0 mph 76% 0.00 in 780.00 W/m2
14:58 49.9 °F 42.3 °F 29.92 in ESE 5.0 mph 10.0 mph 75% 0.00 in 677.00 W/m2
15:00 50.5 °F 44.9 °F 29.92 in ESE 3.0 mph 10.0 mph 81% 0.00 in 780.00 W/m2
15:01 50.9 °F 43.3 °F 29.92 in ESE 3.0 mph 5.0 mph 75% 0.00 in 786.00 W/m2
15:04 50.8 °F 42.8 °F 29.92 in SE 5.0 mph 12.0 mph 74% 0.00 in 707.00 W/m2
15:05 50.8 °F 42.8 °F 29.92 in ESE 6.0 mph 12.0 mph 74% 0.00 in 738.00 W/m2
15:06 50.7 °F 42.7 °F 29.92 in SE 3.0 mph 12.0 mph 74% 0.00 in 749.00 W/m2
15:09 51.0 °F 43.0 °F 29.92 in SSE 3.0 mph 12.0 mph 74% 0.00 in 735.00 W/m2
15:10 50.8 °F 42.8 °F 29.92 in ESE 9.0 mph 9.0 mph 74% 0.00 in 731.00 W/m2
15:11 50.9 °F 43.3 °F 29.92 in ESE 5.0 mph 9.0 mph 75% 0.00 in 721.00 W/m2
15:13 51.6 °F 44.0 °F 29.92 in ESE 1.0 mph 9.0 mph 75% 0.00 in 735.00 W/m2
15:14 51.7 °F 43.3 °F 29.92 in ESE 2.0 mph 9.0 mph 73% 0.00 in 729.00 W/m2
15:15 51.7 °F 43.3 °F 29.92 in ESE 3.0 mph 9.0 mph 73% 0.00 in 684.00 W/m2
15:16 51.6 °F 42.9 °F 29.92 in SE 7.0 mph 9.0 mph 72% 0.00 in 696.00 W/m2
15:18 51.0 °F 41.9 °F 29.92 in ESE 3.0 mph 9.0 mph 71% 0.00 in 694.00 W/m2
15:20 50.6 °F 41.9 °F 29.92 in ESE 3.0 mph 4.0 mph 72% 0.00 in 677.00 W/m2
15:21 50.4 °F 42.1 °F 29.92 in ESE 4.0 mph 4.0 mph 73% 0.00 in 677.00 W/m2
15:22 50.4 °F 42.1 °F 29.92 in ESE 6.0 mph 6.0 mph 73% 0.00 in 564.00 W/m2
15:23 50.1 °F 41.4 °F 29.92 in East 1.0 mph 6.0 mph 72% 0.00 in 517.00 W/m2
15:25 49.9 °F 41.6 °F 29.92 in ESE 6.0 mph 7.0 mph 73% 0.00 in 559.00 W/m2
15:26 50.2 °F 42.6 °F 29.92 in ESE 1.0 mph 7.0 mph 75% 0.00 in 570.00 W/m2
15:27 50.2 °F 42.6 °F 29.92 in ESE 3.0 mph 7.0 mph 75% 0.00 in 519.00 W/m2
15:28 50.7 °F 43.1 °F 29.92 in ESE 4.0 mph 7.0 mph 75% 0.00 in 628.00 W/m2
15:30 50.9 °F 42.2 °F 29.92 in ESE 4.0 mph 5.0 mph 72% 0.00 in 457.00 W/m2
15:31 50.7 °F 42.0 °F 29.92 in ESE 2.0 mph 5.0 mph 72% 0.00 in 441.00 W/m2
15:32 50.7 °F 42.0 °F 29.92 in ESE 2.0 mph 5.0 mph 72% 0.00 in 441.00 W/m2
15:34 50.5 °F 41.8 °F 29.92 in ESE 3.0 mph 5.0 mph 72% 0.00 in 503.00 W/m2
15:35 50.8 °F 43.2 °F 29.92 in ESE 3.0 mph 5.0 mph 75% 0.00 in 424.00 W/m2
15:36 50.9 °F 42.9 °F 29.92 in ESE 3.0 mph 5.0 mph 74% 0.00 in 396.00 W/m2
15:37 51.0 °F 43.0 °F 29.92 in ESE 1.0 mph 5.0 mph 74% 0.00 in 297.00 W/m2
15:39 51.0 °F 42.3 °F 29.92 in ESE 3.0 mph 5.0 mph 72% 0.00 in 313.00 W/m2
15:41 50.7 °F 42.0 °F 29.92 in ESE 3.0 mph 6.0 mph 72% 0.00 in 174.00 W/m2
15:42 50.6 °F 41.9 °F 29.92 in ESE 2.0 mph 6.0 mph 72% 0.00 in 239.00 W/m2
15:44 50.5 °F 41.8 °F 29.92 in ESE 5.0 mph 6.0 mph 72% 0.00 in 167.00 W/m2
15:46 50.2 °F 41.5 °F 29.92 in ESE 3.0 mph 6.0 mph 72% 0.00 in 134.00 W/m2
15:47 50.0 °F 41.3 °F 29.92 in ESE 3.0 mph 6.0 mph 72% 0.00 in 139.00 W/m2
15:49 49.7 °F 41.4 °F 29.91 in ESE 3.0 mph 7.0 mph 73% 0.00 in 121.00 W/m2
15:51 49.5 °F 41.2 °F 29.91 in ESE 3.0 mph 7.0 mph 73% 0.00 in 111.00 W/m2
15:52 49.4 °F 41.1 °F 29.91 in ESE 4.0 mph 7.0 mph 73% 0.00 in 120.00 W/m2
15:55 49.1 °F 41.2 °F 29.91 in East 4.0 mph 7.0 mph 74% 0.00 in 155.00 W/m2
15:56 49.1 °F 41.5 °F 29.91 in ESE 7.0 mph 7.0 mph 75% 0.00 in 220.00 W/m2
15:57 49.1 °F 41.5 °F 29.92 in ESE 3.0 mph 7.0 mph 75% 0.00 in 292.00 W/m2
16:00 49.2 °F 41.6 °F 29.91 in East 3.0 mph 5.0 mph 75% 0.00 in 137.00 W/m2
16:01 49.2 °F 41.6 °F 29.92 in ESE 6.0 mph 6.0 mph 75% 0.00 in 163.00 W/m2
16:02 49.3 °F 41.7 °F 29.91 in ESE 4.0 mph 6.0 mph 75% 0.00 in 118.00 W/m2
16:06 49.4 °F 41.8 °F 29.91 in ESE 1.0 mph 6.0 mph 75% 0.00 in 183.00 W/m2
16:07 49.4 °F 41.5 °F 29.91 in ESE 4.0 mph 6.0 mph 74% 0.00 in 167.00 W/m2
16:08 49.4 °F 41.8 °F 29.91 in ESE 3.0 mph 6.0 mph 75% 0.00 in 155.00 W/m2
16:11 49.5 °F 41.9 °F 29.91 in ESE 1.0 mph 4.0 mph 75% 0.00 in 308.00 W/m2
16:12 49.6 °F 41.7 °F 29.91 in ESE 3.0 mph 4.0 mph 74% 0.00 in 227.00 W/m2
16:13 49.6 °F 41.7 °F 29.91 in ESE 3.0 mph 4.0 mph 74% 0.00 in 162.00 W/m2
16:16 49.6 °F 41.7 °F 29.91 in ESE 1.0 mph 6.0 mph 74% 0.00 in 127.00 W/m2
16:17 49.6 °F 41.7 °F 29.91 in Calm   6.0 mph 74% 0.00 in 127.00 W/m2
16:18 49.6 °F 41.7 °F 29.91 in East 3.0 mph 6.0 mph 74% 0.00 in 223.00 W/m2
16:22 49.8 °F 42.2 °F 29.90 in East 1.0 mph 9.0 mph 75% 0.00 in 160.00 W/m2
16:23 49.9 °F 42.3 °F 29.90 in ENE 5.0 mph 9.0 mph 75% 0.00 in 142.00 W/m2
16:27 49.8 °F 41.9 °F 29.90 in East 4.0 mph 9.0 mph 74% 0.00 in 104.00 W/m2
16:29 49.8 °F 41.9 °F 29.90 in East 5.0 mph 9.0 mph 74% 0.00 in 105.00 W/m2
16:30 49.8 °F 41.9 °F 29.90 in ENE 5.0 mph 10.0 mph 74% 0.00 in 105.00 W/m2
16:32 49.7 °F 41.8 °F 29.90 in Calm   5.0 mph 74% 0.00 in 111.00 W/m2
16:34 49.7 °F 41.8 °F 29.90 in ENE 2.0 mph 5.0 mph 74% 0.00 in 123.00 W/m2
16:35 49.7 °F 41.8 °F 29.90 in ENE 3.0 mph 5.0 mph 74% 0.00 in 128.00 W/m2
16:36 49.6 °F 41.7 °F 29.90 in Calm   5.0 mph 74% 0.00 in 135.00 W/m2
16:37 49.6 °F 41.7 °F 29.90 in ENE 1.0 mph 6.0 mph 74% 0.00 in 142.00 W/m2
16:39 49.6 °F 42.0 °F 29.90 in ENE 2.0 mph 6.0 mph 75% 0.00 in 162.00 W/m2
16:40 49.7 °F 42.1 °F 29.90 in Calm   1.0 mph 75% 0.00 in 169.00 W/m2
16:43 49.8 °F 42.2 °F 29.90 in ENE 4.0 mph 5.0 mph 75% 0.00 in 179.00 W/m2
16:44 49.9 °F 42.0 °F 29.90 in ENE 4.0 mph 6.0 mph 74% 0.00 in 183.00 W/m2
16:46 50.0 °F 42.0 °F 29.90 in ENE 4.0 mph 6.0 mph 74% 0.00 in 185.00 W/m2
16:48 50.1 °F 42.2 °F 29.90 in ENE 2.0 mph 6.0 mph 74% 0.00 in 186.00 W/m2
16:49 50.1 °F 42.2 °F 29.90 in ENE 2.0 mph 6.0 mph 74% 0.00 in 188.00 W/m2
16:50 50.1 °F 42.2 °F 29.90 in ENE 3.0 mph 4.0 mph 74% 0.00 in 188.00 W/m2
16:51 50.3 °F 42.3 °F 29.90 in ENE 6.0 mph 6.0 mph 74% 0.00 in 190.00 W/m2
16:53 50.5 °F 42.9 °F 29.90 in East 4.0 mph 7.0 mph 75% 0.00 in 192.00 W/m2
16:55 50.6 °F 42.6 °F 29.90 in East 4.0 mph 7.0 mph 74% 0.00 in 204.00 W/m2
16:56 50.8 °F 42.5 °F 29.90 in Calm   7.0 mph 73% 0.00 in 213.00 W/m2
17:00 51.1 °F 42.8 °F 29.90 in East 3.0 mph 7.0 mph 73% 0.00 in 227.00 W/m2
17:02 51.2 °F 43.2 °F 29.90 in Calm   6.0 mph 74% 0.00 in 243.00 W/m2
17:05 51.7 °F 43.3 °F 29.90 in East 2.0 mph 6.0 mph 73% 0.00 in 251.00 W/m2
17:07 51.8 °F 43.1 °F 29.90 in East 2.0 mph 6.0 mph 72% 0.00 in 213.00 W/m2
17:10 51.9 °F 42.8 °F 29.90 in East 2.0 mph 4.0 mph 71% 0.00 in 183.00 W/m2
17:11 51.8 °F 42.7 °F 29.90 in East 1.0 mph 4.0 mph 71% 0.00 in 176.00 W/m2
17:12 51.8 °F 43.1 °F 29.90 in Calm   4.0 mph 72% 0.00 in 165.00 W/m2
17:15 51.5 °F 42.4 °F 29.90 in Calm   4.0 mph 71% 0.00 in 151.00 W/m2
17:16 51.5 °F 42.4 °F 29.90 in Calm   4.0 mph 71% 0.00 in 149.00 W/m2
17:18 51.5 °F 43.1 °F 29.90 in East 1.0 mph 4.0 mph 73% 0.00 in 146.00 W/m2
17:20 51.5 °F 42.8 °F 29.90 in East 4.0 mph 5.0 mph 72% 0.00 in 142.00 W/m2
17:21 51.6 °F 42.9 °F 29.90 in East 3.0 mph 5.0 mph 72% 0.00 in 142.00 W/m2
17:22 51.6 °F 42.9 °F 29.90 in East 1.0 mph 6.0 mph 72% 0.00 in 141.00 W/m2
17:23 51.5 °F 42.8 °F 29.90 in East 3.0 mph 6.0 mph 72% 0.00 in 141.00 W/m2
17:25 51.6 °F 42.9 °F 29.90 in East 3.0 mph 6.0 mph 72% 0.00 in 156.00 W/m2
17:26 51.7 °F 43.3 °F 29.90 in East 2.0 mph 6.0 mph 73% 0.00 in 156.00 W/m2
17:27 51.7 °F 43.0 °F 29.90 in East 4.0 mph 6.0 mph 72% 0.00 in 165.00 W/m2
17:28 51.7 °F 43.0 °F 29.90 in East 5.0 mph 6.0 mph 72% 0.00 in 165.00 W/m2
17:30 51.9 °F 43.2 °F 29.90 in Calm   1.0 mph 72% 0.00 in 237.00 W/m2
17:31 52.0 °F 43.3 °F 29.90 in East 4.0 mph 5.0 mph 72% 0.00 in 237.00 W/m2
17:33 52.2 °F 43.5 °F 29.90 in East 2.0 mph 8.0 mph 72% 0.00 in 255.00 W/m2
17:35 52.5 °F 43.8 °F 29.90 in Calm   8.0 mph 72% 0.00 in 241.00 W/m2
17:36 52.7 °F 43.9 °F 29.90 in East 2.0 mph 8.0 mph 72% 0.00 in 239.00 W/m2
17:38 52.9 °F 44.1 °F 29.90 in Calm   8.0 mph 72% 0.00 in 244.00 W/m2
17:41 53.1 °F 43.6 °F 29.90 in East 4.0 mph 4.0 mph 70% 0.00 in 230.00 W/m2
17:43 53.2 °F 43.7 °F 29.89 in ESE 4.0 mph 8.0 mph 70% 0.00 in 171.00 W/m2
17:44 53.2 °F 43.3 °F 29.89 in ESE 2.0 mph 8.0 mph 69% 0.00 in 176.00 W/m2
17:46 53.4 °F 43.9 °F 29.89 in ESE 5.0 mph 8.0 mph 70% 0.00 in 193.00 W/m2
17:47 53.4 °F 43.5 °F 29.89 in ESE 2.0 mph 8.0 mph 69% 0.00 in 179.00 W/m2
17:49 53.6 °F 43.7 °F 29.89 in SE 7.0 mph 8.0 mph 69% 0.00 in 141.00 W/m2
17:50 53.6 °F 43.7 °F 29.89 in SE 5.0 mph 8.0 mph 69% 0.00 in 132.00 W/m2
17:51 53.7 °F 43.8 °F 29.89 in SE 4.0 mph 7.0 mph 69% 0.00 in 132.00 W/m2
17:52 53.7 °F 43.8 °F 29.89 in SE 3.0 mph 7.0 mph 69% 0.00 in 116.00 W/m2
17:55 53.5 °F 43.6 °F 29.89 in SE 3.0 mph 7.0 mph 69% 0.00 in 130.00 W/m2
17:56 53.3 °F 43.0 °F 29.89 in SE 5.0 mph 7.0 mph 68% 0.00 in 134.00 W/m2
17:57 53.3 °F 43.0 °F 29.88 in ESE 7.0 mph 7.0 mph 68% 0.00 in 113.00 W/m2
18:00 53.1 °F 43.2 °F 29.88 in ESE 3.0 mph 11.0 mph 69% 0.00 in 132.00 W/m2
18:02 53.0 °F 43.1 °F 29.88 in ESE 4.0 mph 6.0 mph 69% 0.00 in 135.00 W/m2
18:05 52.9 °F 43.4 °F 29.88 in SE 3.0 mph 9.0 mph 70% 0.00 in 93.00 W/m2
18:07 52.9 °F 43.4 °F 29.88 in Calm   10.0 mph 70% 0.00 in 74.00 W/m2
18:08 52.9 °F 43.4 °F 29.88 in SE 5.0 mph 10.0 mph 70% 0.00 in 91.00 W/m2
18:10 53.0 °F 43.5 °F 29.88 in SE 7.0 mph 9.0 mph 70% 0.00 in 81.00 W/m2
18:12 52.9 °F 43.4 °F 29.88 in SE 2.0 mph 9.0 mph 70% 0.00 in 77.00 W/m2
18:14 52.9 °F 43.4 °F 29.88 in SE 4.0 mph 9.0 mph 70% 0.00 in 104.00 W/m2
18:15 52.9 °F 43.4 °F 29.89 in SE 5.0 mph 9.0 mph 70% 0.00 in 114.00 W/m2
18:17 52.9 °F 43.8 °F 29.88 in SE 6.0 mph 9.0 mph 71% 0.00 in 139.00 W/m2
18:19 53.0 °F 43.5 °F 29.88 in SE 4.0 mph 9.0 mph 70% 0.00 in 134.00 W/m2
18:20 53.0 °F 43.5 °F 29.88 in ESE 4.0 mph 7.0 mph 70% 0.00 in 104.00 W/m2
18:21 53.0 °F 43.5 °F 29.88 in ESE 4.0 mph 7.0 mph 70% 0.00 in 104.00 W/m2
18:22 53.0 °F 43.5 °F 29.88 in ESE 7.0 mph 7.0 mph 70% 0.00 in 90.00 W/m2
18:25 53.0 °F 43.1 °F 29.88 in Calm   10.0 mph 69% 0.00 in 81.00 W/m2
18:26 53.1 °F 43.6 °F 29.88 in ESE 5.0 mph 10.0 mph 70% 0.00 in 81.00 W/m2
18:27 53.0 °F 43.1 °F 29.88 in ESE 1.0 mph 10.0 mph 69% 0.00 in 65.00 W/m2
18:31 53.0 °F 43.1 °F 29.88 in ESE 4.0 mph 8.0 mph 69% 0.00 in 37.00 W/m2
18:32 53.0 °F 43.1 °F 29.88 in Calm   8.0 mph 69% 0.00 in 35.00 W/m2
18:33 53.0 °F 43.5 °F 29.88 in ESE 3.0 mph 8.0 mph 70% 0.00 in 33.00 W/m2
18:37 52.8 °F 42.9 °F 29.89 in ESE 4.0 mph 9.0 mph 69% 0.00 in 32.00 W/m2
18:38 52.7 °F 43.2 °F 29.88 in ESE 3.0 mph 9.0 mph 70% 0.00 in 35.00 W/m2
18:42 52.6 °F 43.5 °F 29.89 in ESE 1.0 mph 4.0 mph 71% 0.00 in 33.00 W/m2
18:43 52.6 °F 43.1 °F 29.88 in ESE 3.0 mph 4.0 mph 70% 0.00 in 30.00 W/m2
18:47 52.5 °F 43.4 °F 29.89 in ESE 1.0 mph 7.0 mph 71% 0.00 in 26.00 W/m2
18:48 52.5 °F 43.4 °F 29.89 in ESE 2.0 mph 7.0 mph 71% 0.00 in 26.00 W/m2
18:49 52.5 °F 43.4 °F 29.89 in ESE 2.0 mph 7.0 mph 71% 0.00 in 26.00 W/m2
18:52 52.5 °F 43.4 °F 29.88 in ESE 3.0 mph 4.0 mph 71% 0.00 in 23.00 W/m2
18:53 52.5 °F 43.4 °F 29.88 in ESE 2.0 mph 4.0 mph 71% 0.00 in 21.00 W/m2
18:54 52.4 °F 43.3 °F 29.88 in Calm   4.0 mph 71% 0.00 in 21.00 W/m2
18:57 52.4 °F 43.3 °F 29.88 in Calm   5.0 mph 71% 0.00 in 18.00 W/m2
18:58 52.4 °F 43.3 °F 29.89 in ESE 1.0 mph 5.0 mph 71% 0.00 in 14.00 W/m2
18:59 52.3 °F 43.2 °F 29.89 in ESE 1.0 mph 5.0 mph 71% 0.00 in 14.00 W/m2
19:00 52.3 °F 43.2 °F 29.88 in ESE 3.0 mph 3.0 mph 71% 0.00 in 12.00 W/m2
19:02 52.2 °F 43.5 °F 29.88 in ESE 2.0 mph 5.0 mph 72% 0.00 in 11.00 W/m2
19:03 52.1 °F 43.4 °F 29.89 in ESE 1.0 mph 5.0 mph 72% 0.00 in 11.00 W/m2
19:04 52.1 °F 43.4 °F 29.88 in ESE 2.0 mph 5.0 mph 72% 0.00 in 9.00 W/m2
19:05 52.0 °F 43.3 °F 29.89 in ESE 2.0 mph 5.0 mph 72% 0.00 in 7.00 W/m2
19:08 51.8 °F 43.1 °F 29.89 in ESE 2.0 mph 5.0 mph 72% 0.00 in 5.00 W/m2
19:09 51.8 °F 43.1 °F 29.89 in ESE 1.0 mph 5.0 mph 72% 0.00 in 5.00 W/m2
19:10 51.7 °F 43.3 °F 29.89 in Calm   1.0 mph 73% 0.00 in 5.00 W/m2
19:13 51.6 °F 43.2 °F 29.89 in Calm   2.0 mph 73% 0.00 in 0.00 W/m2
19:14 51.6 °F 43.2 °F 29.89 in Calm   3.0 mph 73% 0.00 in 0.00 W/m2
19:15 51.5 °F 42.8 °F 29.89 in ESE 2.0 mph 3.0 mph 72% 0.00 in 0.00 W/m2
19:18 51.4 °F 43.0 °F 29.88 in ESE 1.0 mph 3.0 mph 73% 0.00 in 0.00 W/m2
19:19 51.4 °F 43.0 °F 29.88 in ESE 4.0 mph 4.0 mph 73% 0.00 in 0.00 W/m2
19:21 51.3 °F 43.0 °F 29.88 in ESE 2.0 mph 2.0 mph 73% 0.00 in 0.00 W/m2
19:23 51.1 °F 42.8 °F 29.88 in ESE 2.0 mph 4.0 mph 73% 0.00 in 0.00 W/m2
19:24 51.1 °F 42.8 °F 29.88 in Calm   4.0 mph 73% 0.00 in 0.00 W/m2
19:26 51.0 °F 43.0 °F 29.88 in Calm   4.0 mph 74% 0.00 in 0.00 W/m2
19:29 50.8 °F 42.8 °F 29.88 in ESE 3.0 mph 4.0 mph 74% 0.00 in 0.00 W/m2
19:30 50.8 °F 42.8 °F 29.88 in Calm   1.0 mph 74% 0.00 in 0.00 W/m2
19:31 50.8 °F 42.8 °F 29.88 in ESE 1.0 mph 1.0 mph 74% 0.00 in 0.00 W/m2
19:34 50.7 °F 42.7 °F 29.88 in Calm   3.0 mph 74% 0.00 in 0.00 W/m2
19:35 50.7 °F 42.7 °F 29.88 in Calm   3.0 mph 74% 0.00 in 0.00 W/m2
19:38 50.7 °F 42.7 °F 29.88 in Calm   3.0 mph 74% 0.00 in 0.00 W/m2
19:39 50.6 °F 42.6 °F 29.88 in ESE 3.0 mph 3.0 mph 74% 0.00 in 0.00 W/m2
19:40 50.6 °F 42.6 °F 29.88 in ESE 1.0 mph 2.0 mph 74% 0.00 in 0.00 W/m2
19:41 50.6 °F 42.6 °F 29.88 in Calm   2.0 mph 74% 0.00 in 0.00 W/m2
19:45 50.5 °F 42.9 °F 29.88 in Calm   3.0 mph 75% 0.00 in 0.00 W/m2
19:46 50.4 °F 42.8 °F 29.88 in Calm   3.0 mph 75% 0.00 in 0.00 W/m2
19:50 50.2 °F 42.6 °F 29.87 in ESE 3.0 mph 3.0 mph 75% 0.00 in 0.00 W/m2
19:51 50.2 °F 42.6 °F 29.88 in ESE 2.0 mph 3.0 mph 75% 0.00 in 0.00 W/m2
19:55 50.1 °F 42.8 °F 29.88 in ESE 3.0 mph 3.0 mph 76% 0.00 in 0.00 W/m2
19:56 50.1 °F 42.8 °F 29.87 in Calm   3.0 mph 76% 0.00 in 0.00 W/m2
19:57 50.0 °F 42.7 °F 29.88 in ESE 2.0 mph 3.0 mph 76% 0.00 in 0.00 W/m2
20:00 49.9 °F 42.7 °F 29.88 in Calm     76% 0.00 in 0.00 W/m2
20:01 49.9 °F 42.7 °F 29.88 in Calm     76% 0.00 in 0.00 W/m2
20:02 49.9 °F 42.7 °F 29.88 in Calm     76% 0.00 in 0.00 W/m2
20:05 49.7 °F 42.5 °F 29.88 in ESE 2.0 mph 3.0 mph 76% 0.00 in 0.00 W/m2
20:06 49.7 °F 42.5 °F 29.87 in ESE 2.0 mph 3.0 mph 76% 0.00 in 0.00 W/m2
20:07 49.6 °F 42.4 °F 29.87 in Calm   3.0 mph 76% 0.00 in 0.00 W/m2
20:10 49.5 °F 42.6 °F 29.88 in Calm   2.0 mph 77% 0.00 in 0.00 W/m2
20:12 49.4 °F 42.5 °F 29.88 in Calm   2.0 mph 77% 0.00 in 0.00 W/m2
20:13 49.4 °F 42.5 °F 29.88 in ESE 1.0 mph 2.0 mph 77% 0.00 in 0.00 W/m2
20:15 49.3 °F 42.4 °F 29.88 in Calm   3.0 mph 77% 0.00 in 0.00 W/m2
20:17 49.2 °F 42.3 °F 29.88 in Calm   4.0 mph 77% 0.00 in 0.00 W/m2
20:18 49.2 °F 42.3 °F 29.88 in ESE 2.0 mph 4.0 mph 77% 0.00 in 0.00 W/m2
20:20 49.2 °F 42.3 °F 29.88 in ESE 3.0 mph 3.0 mph 77% 0.00 in 0.00 W/m2
20:23 49.1 °F 42.2 °F 29.88 in ESE 1.0 mph 3.0 mph 77% 0.00 in 0.00 W/m2
20:25 49.0 °F 42.1 °F 29.88 in ESE 4.0 mph 4.0 mph 77% 0.00 in 0.00 W/m2
20:28 48.8 °F 41.9 °F 29.87 in ESE 4.0 mph 5.0 mph 77% 0.00 in 0.00 W/m2
20:29 48.7 °F 41.8 °F 29.87 in ESE 4.0 mph 5.0 mph 77% 0.00 in 0.00 W/m2
20:30 48.5 °F 41.6 °F 29.88 in ESE 3.0 mph 5.0 mph 77% 0.00 in 0.00 W/m2
20:33 48.4 °F 41.9 °F 29.88 in ESE 1.0 mph 5.0 mph 78% 0.00 in 0.00 W/m2
20:34 48.4 °F 41.9 °F 29.88 in ESE 2.0 mph 5.0 mph 78% 0.00 in 0.00 W/m2
20:35 48.3 °F 41.8 °F 29.88 in ESE 1.0 mph 5.0 mph 78% 0.00 in 0.00 W/m2
20:38 48.2 °F 41.7 °F 29.88 in ESE 3.0 mph 5.0 mph 78% 0.00 in 0.00 W/m2
20:39 48.2 °F 41.7 °F 29.88 in ESE 4.0 mph 5.0 mph 78% 0.00 in 0.00 W/m2
20:40 48.1 °F 41.6 °F 29.88 in ESE 3.0 mph 4.0 mph 78% 0.00 in 0.00 W/m2
20:44 48.0 °F 41.8 °F 29.88 in ESE 2.0 mph 4.0 mph 79% 0.00 in 0.00 W/m2
20:45 47.9 °F 41.7 °F 29.88 in ESE 3.0 mph 5.0 mph 79% 0.00 in 0.00 W/m2
20:46 47.9 °F 41.7 °F 29.88 in ESE 1.0 mph 5.0 mph 79% 0.00 in 0.00 W/m2
20:49 47.8 °F 41.6 °F 29.88 in ESE 3.0 mph 5.0 mph 79% 0.00 in 0.00 W/m2
20:50 47.8 °F 41.6 °F 29.88 in ESE 3.0 mph 5.0 mph 79% 0.00 in 0.00 W/m2
20:51 47.8 °F 41.6 °F 29.88 in ESE 3.0 mph 5.0 mph 79% 0.00 in 0.00 W/m2
20:55 47.8 °F 41.9 °F 29.87 in ESE 3.0 mph 6.0 mph 80% 0.00 in 0.00 W/m2
20:56 47.9 °F 42.0 °F 29.87 in ESE 1.0 mph 6.0 mph 80% 0.00 in 0.00 W/m2
21:00 48.0 °F 42.1 °F 29.87 in ESE 1.0 mph 2.0 mph 80% 0.00 in 0.00 W/m2
21:01 48.0 °F 42.1 °F 29.87 in ESE 2.0 mph 3.0 mph 80% 0.00 in 0.00 W/m2
21:05 48.1 °F 42.2 °F 29.87 in ESE 4.0 mph 5.0 mph 80% 0.00 in 0.00 W/m2
21:06 48.1 °F 42.2 °F 29.87 in ESE 4.0 mph 5.0 mph 80% 0.00 in 0.00 W/m2
21:10 48.3 °F 42.4 °F 29.87 in ESE 1.0 mph 1.0 mph 80% 0.00 in 0.00 W/m2
21:11 48.3 °F 42.4 °F 29.87 in ESE 6.0 mph 6.0 mph 80% 0.00 in 0.00 W/m2
21:12 48.4 °F 42.5 °F 29.87 in ESE 2.0 mph 6.0 mph 80% 0.00 in 0.00 W/m2
21:15 48.5 °F 42.6 °F 29.88 in Calm   6.0 mph 80% 0.00 in 0.00 W/m2
21:16 48.6 °F 42.7 °F 29.88 in ESE 4.0 mph 6.0 mph 80% 0.00 in 0.00 W/m2
21:17 48.7 °F 42.8 °F 29.88 in ESE 3.0 mph 6.0 mph 80% 0.00 in 0.00 W/m2
21:20 48.8 °F 42.9 °F 29.88 in ESE 3.0 mph 6.0 mph 80% 0.00 in 0.00 W/m2
21:21 48.8 °F 42.9 °F 29.87 in ESE 2.0 mph 6.0 mph 80% 0.00 in 0.00 W/m2
21:22 48.9 °F 43.0 °F 29.87 in ESE 4.0 mph 6.0 mph 80% 0.00 in 0.00 W/m2
21:26 49.0 °F 42.8 °F 29.87 in ESE 1.0 mph 6.0 mph 79% 0.00 in 0.00 W/m2
21:27 49.0 °F 42.8 °F 29.87 in ESE 2.0 mph 6.0 mph 79% 0.00 in 0.00 W/m2
21:31 49.1 °F 42.9 °F 29.87 in ESE 4.0 mph 4.0 mph 79% 0.00 in 0.00 W/m2
21:32 49.1 °F 42.9 °F 29.87 in ESE 3.0 mph 5.0 mph 79% 0.00 in 0.00 W/m2
21:33 49.2 °F 43.0 °F 29.87 in ESE 3.0 mph 6.0 mph 79% 0.00 in 0.00 W/m2
21:37 49.2 °F 43.0 °F 29.87 in ESE 3.0 mph 6.0 mph 79% 0.00 in 0.00 W/m2
21:38 49.2 °F 43.0 °F 29.87 in ESE 1.0 mph 6.0 mph 79% 0.00 in 0.00 W/m2
21:42 49.1 °F 42.9 °F 29.86 in ESE 3.0 mph 5.0 mph 79% 0.00 in 0.00 W/m2
21:43 49.1 °F 42.9 °F 29.86 in ESE 1.0 mph 5.0 mph 79% 0.00 in 0.00 W/m2
21:44 49.0 °F 42.8 °F 29.87 in ESE 2.0 mph 5.0 mph 79% 0.00 in 0.00 W/m2
21:48 48.9 °F 42.7 °F 29.86 in ESE 4.0 mph 5.0 mph 79% 0.00 in 0.00 W/m2
21:50 48.9 °F 42.7 °F 29.86 in ESE 3.0 mph 3.0 mph 79% 0.00 in 0.00 W/m2
21:53 48.7 °F 42.5 °F 29.86 in ESE 3.0 mph 4.0 mph 79% 0.00 in 0.00 W/m2
21:56 48.6 °F 42.4 °F 29.86 in ESE 2.0 mph 6.0 mph 79% 0.00 in 0.00 W/m2
21:58 48.5 °F 42.3 °F 29.86 in ESE 1.0 mph 6.0 mph 79% 0.00 in 0.00 W/m2
21:59 48.4 °F 42.2 °F 29.86 in ESE 3.0 mph 6.0 mph 79% 0.00 in 0.00 W/m2
22:01 48.3 °F 42.1 °F 29.86 in SE 2.0 mph 6.0 mph 79% 0.00 in 0.00 W/m2
22:04 48.2 °F 42.3 °F 29.86 in SE 4.0 mph 6.0 mph 80% 0.00 in 0.00 W/m2
22:05 48.2 °F 42.3 °F 29.86 in SE 2.0 mph 6.0 mph 80% 0.00 in 0.00 W/m2
22:06 48.1 °F 42.2 °F 29.86 in SE 2.0 mph 6.0 mph 80% 0.00 in 0.00 W/m2
22:09 48.1 °F 42.2 °F 29.86 in SE 4.0 mph 7.0 mph 80% 0.00 in 0.00 W/m2
22:10 48.1 °F 42.2 °F 29.86 in SE 1.0 mph 2.0 mph 80% 0.00 in 0.00 W/m2
22:11 48.0 °F 42.1 °F 29.86 in SE 1.0 mph 6.0 mph 80% 0.00 in 0.00 W/m2
22:14 48.0 °F 42.1 °F 29.86 in SE 1.0 mph 6.0 mph 80% 0.00 in 0.00 W/m2
22:15 48.0 °F 42.1 °F 29.86 in SE 5.0 mph 7.0 mph 80% 0.00 in 0.00 W/m2
22:17 47.9 °F 42.4 °F 29.86 in SE 3.0 mph 7.0 mph 81% 0.00 in 0.00 W/m2
22:19 47.9 °F 42.4 °F 29.86 in SE 4.0 mph 9.0 mph 81% 0.00 in 0.00 W/m2
22:21 47.9 °F 42.4 °F 29.86 in SE 2.0 mph 6.0 mph 81% 0.00 in 0.00 W/m2
22:22 47.9 °F 42.4 °F 29.85 in SE 2.0 mph 6.0 mph 81% 0.00 in 0.00 W/m2
22:24 47.9 °F 42.4 °F 29.85 in SE 2.0 mph 6.0 mph 81% 0.00 in 0.00 W/m2
22:26 47.9 °F 42.4 °F 29.86 in SE 1.0 mph 6.0 mph 81% 0.00 in 0.00 W/m2
22:28 47.9 °F 42.4 °F 29.85 in SE 3.0 mph 6.0 mph 81% 0.00 in 0.00 W/m2
22:29 47.8 °F 42.3 °F 29.85 in SE 2.0 mph 6.0 mph 81% 0.00 in 0.00 W/m2
22:30 47.8 °F 42.3 °F 29.85 in SE 3.0 mph 3.0 mph 81% 0.00 in 0.00 W/m2
22:31 47.8 °F 42.3 °F 29.85 in Calm   3.0 mph 81% 0.00 in 0.00 W/m2
22:33 47.8 °F 42.3 °F 29.85 in SE 4.0 mph 4.0 mph 81% 0.00 in 0.00 W/m2
22:35 47.8 °F 42.3 °F 29.85 in SE 3.0 mph 4.0 mph 81% 0.00 in 0.00 W/m2
22:36 47.8 °F 42.3 °F 29.85 in Calm   4.0 mph 81% 0.00 in 0.00 W/m2
22:38 47.8 °F 42.3 °F 29.85 in SE 6.0 mph 6.0 mph 81% 0.00 in 0.00 W/m2
22:41 47.7 °F 42.2 °F 29.85 in SE 3.0 mph 6.0 mph 81% 0.00 in 0.00 W/m2
22:42 47.7 °F 42.2 °F 29.85 in SE 6.0 mph 6.0 mph 81% 0.00 in 0.00 W/m2
22:43 47.7 °F 42.2 °F 29.85 in SE 1.0 mph 6.0 mph 81% 0.00 in 0.00 W/m2
22:46 47.7 °F 42.2 °F 29.85 in SE 4.0 mph 7.0 mph 81% 0.00 in 0.00 W/m2
22:48 47.7 °F 42.2 °F 29.84 in SE 3.0 mph 7.0 mph 81% 0.00 in 0.00 W/m2
22:49 47.7 °F 42.2 °F 29.85 in SE 4.0 mph 7.0 mph 81% 0.00 in 0.00 W/m2
22:51 47.7 °F 42.2 °F 29.84 in Calm   4.0 mph 81% 0.00 in 0.00 W/m2
22:53 47.8 °F 42.3 °F 29.84 in SE 3.0 mph 5.0 mph 81% 0.00 in 0.00 W/m2
22:54 47.8 °F 42.3 °F 29.84 in SE 3.0 mph 5.0 mph 81% 0.00 in 0.00 W/m2
22:57 47.8 °F 42.3 °F 29.85 in SE 4.0 mph 6.0 mph 81% 0.00 in 0.00 W/m2
22:58 47.8 °F 42.3 °F 29.84 in SE 5.0 mph 6.0 mph 81% 0.00 in 0.00 W/m2
22:59 47.8 °F 42.3 °F 29.84 in SE 4.0 mph 6.0 mph 81% 0.00 in 0.00 W/m2
23:00 47.8 °F 42.3 °F 29.84 in SE 4.0 mph 6.0 mph 81% 0.00 in 0.00 W/m2
23:01 47.7 °F 42.2 °F 29.84 in SE 4.0 mph 6.0 mph 81% 0.00 in 0.00 W/m2
23:05 47.6 °F 42.4 °F 29.84 in SE 2.0 mph 6.0 mph 82% 0.00 in 0.00 W/m2
23:06 47.6 °F 42.4 °F 29.84 in SE 3.0 mph 6.0 mph 82% 0.00 in 0.00 W/m2
23:10 47.5 °F 42.3 °F 29.84 in SE 2.0 mph 6.0 mph 82% 0.00 in 0.00 W/m2
23:11 47.5 °F 42.3 °F 29.84 in SE 3.0 mph 6.0 mph 82% 0.00 in 0.00 W/m2
23:12 47.5 °F 42.3 °F 29.84 in SE 5.0 mph 6.0 mph 82% 0.00 in 0.00 W/m2
23:16 47.4 °F 42.2 °F 29.84 in SE 4.0 mph 6.0 mph 82% 0.00 in 0.00 W/m2
23:17 47.4 °F 42.2 °F 29.83 in SE 4.0 mph 6.0 mph 82% 0.00 in 0.00 W/m2
23:21 47.4 °F 42.2 °F 29.83 in SE 3.0 mph 5.0 mph 82% 0.00 in 0.00 W/m2
23:22 47.3 °F 42.1 °F 29.83 in SE 3.0 mph 5.0 mph 82% 0.00 in 0.00 W/m2
23:26 47.2 °F 42.0 °F 29.83 in SE 2.0 mph 5.0 mph 82% 0.00 in 0.00 W/m2
23:27 47.2 °F 42.0 °F 29.83 in SE 3.0 mph 5.0 mph 82% 0.00 in 0.00 W/m2
23:29 47.2 °F 42.0 °F 29.83 in SE 2.0 mph 5.0 mph 82% 0.00 in 0.00 W/m2
23:31 47.2 °F 42.0 °F 29.83 in SE 3.0 mph 6.0 mph 82% 0.00 in 0.00 W/m2
23:32 47.1 °F 41.9 °F 29.83 in SE 2.0 mph 6.0 mph 82% 0.00 in 0.00 W/m2
23:34 47.1 °F 41.9 °F 29.83 in SE 3.0 mph 6.0 mph 82% 0.00 in 0.00 W/m2
23:36 47.1 °F 42.2 °F 29.83 in SE 3.0 mph 6.0 mph 83% 0.00 in 0.00 W/m2
23:37 47.1 °F 42.2 °F 29.83 in SE 5.0 mph 6.0 mph 83% 0.00 in 0.00 W/m2
23:39 47.0 °F 42.1 °F 29.83 in SE 4.0 mph 6.0 mph 83% 0.00 in 0.00 W/m2
23:41 47.0 °F 42.1 °F 29.83 in SE 1.0 mph 4.0 mph 83% 0.00 in 0.00 W/m2
23:42 46.9 °F 42.0 °F 29.83 in SE 2.0 mph 4.0 mph 83% 0.00 in 0.00 W/m2
23:43 46.9 °F 42.0 °F 29.83 in SE 2.0 mph 4.0 mph 83% 0.00 in 0.00 W/m2
23:45 46.9 °F 42.0 °F 29.83 in SE 2.0 mph 4.0 mph 83% 0.00 in 0.00 W/m2
23:46 46.8 °F 41.9 °F 29.83 in SE 4.0 mph 5.0 mph 83% 0.00 in 0.00 W/m2
23:47 46.8 °F 41.9 °F 29.83 in SE 3.0 mph 6.0 mph 83% 0.00 in 0.00 W/m2
23:48 46.8 °F 41.9 °F 29.82 in SE 4.0 mph 6.0 mph 83% 0.00 in 0.00 W/m2
23:50 46.8 °F 41.9 °F 29.82 in SE 4.0 mph 4.0 mph 83% 0.00 in 0.00 W/m2
23:52 46.7 °F 41.8 °F 29.82 in SE 2.0 mph 6.0 mph 83% 0.00 in 0.00 W/m2
23:53 46.7 °F 41.8 °F 29.82 in SE 4.0 mph 6.0 mph 83% 0.00 in 0.00 W/m2
23:56 46.7 °F 41.8 °F 29.82 in SE 2.0 mph 6.0 mph 83% 0.00 in 0.00 W/m2
23:57 46.7 °F 41.8 °F 29.83 in SE 2.0 mph 6.0 mph 83% 0.00 in 0.00 W/m2
23:58 46.7 °F 41.8 °F 29.83 in SE 3.0 mph 6.0 mph 83% 0.00 in 0.00 W/m2
Peotone Weather Data
Compliments of Weather Underground